W2GRK-15 Weather Reports


time (UTC)temp
C
wind
direction
speed
KPH
gust
KPH
rain 1hr
cm
rain 24hr
cm
rain mn
cm
humidity
%
barometer
mb
20260505153330 25 183 1.6 4.8 0.00 0.00 0.00 49 1011.0
20260505153225 25 201 4.8 8.0 0.00 0.00 0.00 47 1011.2
20260505153121 25 196 4.8 11.3 0.00 0.00 0.00 49 1011.0
20260505153017 25 213 6.4 12.9 0.00 0.00 0.00 49 1011.1
20260505152929 25 172 4.8 4.8 0.00 0.00 0.00 47 1011.1
20260505152844 25 210 4.8 12.9 0.00 0.00 0.00 47 1011.2
20260505152740 25 210 3.2 12.9 0.00 0.00 0.00 47 1011.1
20260505152615 25 277 3.2 6.4 0.00 0.00 0.00 46 1011.1
20260505152527 25 233 3.2 6.4 0.00 0.00 0.00 47 1011.2
20260505152423 25 197 6.4 9.7 0.00 0.00 0.00 47 1010.9
20260505152318 25 203 3.2 6.4 0.00 0.00 0.00 49 1011.0
20260505152230 25 197 4.8 4.8 0.00 0.00 0.00 48 1011.0
20260505152125 25 201 6.4 8.0 0.00 0.00 0.00 47 1011.0
20260505152021 25 242 3.2 4.8 0.00 0.00 0.00 47 1011.1
20260505151937 25 187 3.2 9.7 0.00 0.00 0.00 48 1011.0
20260505151828 24 250 3.2 6.4 0.00 0.00 0.00 49 1011.1
20260505151744 25 200 8.0 12.9 0.00 0.00 0.00 49 1010.9
20260505151619 25 201 9.7 11.3 0.00 0.00 0.00 48 1011.0
20260505151515 25 198 4.8 6.4 0.00 0.00 0.00 49 1011.1
20260505151427 25 189 4.8 6.4 0.00 0.00 0.00 48 1011.0
20260505151322 25 192 1.6 4.8 0.00 0.00 0.00 50 1011.0
20260505151218 25 213 3.2 9.7 0.00 0.00 0.00 48 1011.1
20260505151130 25 230 6.4 9.7 0.00 0.00 0.00 47 1011.0
20260505151025 24 215 4.8 9.7 0.00 0.00 0.00 50 1010.9
20260505150920 24 208 1.6 3.2 0.00 0.00 0.00 48 1011.0
20260505150816 24 208 3.2 4.8 0.00 0.00 0.00 49 1011.2
20260505150728 24 195 11.3 17.7 0.00 0.00 0.00 48 1011.3
20260505150623 24 201 4.8 6.4 0.00 0.00 0.00 50 1011.1
20260505150519 24 176 4.8 6.4 0.00 0.00 0.00 48 1011.2
20260505150431 24 184 4.8 8.0 0.00 0.00 0.00 48 1011.3
20260505150326 24 201 6.4 9.7 0.00 0.00 0.00 48 1011.3
20260505150222 24 190 4.8 8.0 0.00 0.00 0.00 50 1011.3
20260505150117 24 206 4.8 11.3 0.00 0.00 0.00 49 1011.4
20260505140615 22 192 4.8 8.0 0.00 0.00 0.00 55 1012.0
20260505140527 22 211 4.8 8.0 0.00 0.00 0.00 56 1011.8
20260505140422 22 210 6.4 9.7 0.00 0.00 0.00 58 1011.8
20260505140317 22 195 4.8 8.0 0.00 0.00 0.00 55 1011.8
20260505140229 22 196 6.4 9.7 0.00 0.00 0.00 55 1011.8
20260505140145 22 204 6.4 9.7 0.00 0.00 0.00 57 1011.7
20260505130219 20 229 8.0 9.7 0.00 0.00 0.00 59 1011.8
20260505130151 20 206 8.0 11.3 0.00 0.00 0.00 59 1011.8
20260505125031 19 212 4.8 8.0 0.00 0.00 0.00 61 1011.7
20260505124926 19 207 4.8 11.3 0.00 0.00 0.00 62 1011.8
20260505124822 19 193 11.3 20.9 0.00 0.00 0.00 62 1011.4
20260505124717 19 196 8.0 12.9 0.00 0.00 0.00 62 1011.7
20260505124629 19 191 8.0 14.5 0.00 0.00 0.00 61 1011.7
20260505124604 19 195 9.7 14.5 0.00 0.00 0.00 61 1011.7
20260505124420 19 207 9.7 9.7 0.00 0.00 0.00 61 1011.7
20260505124316 19 203 6.4 11.3 0.00 0.00 0.00 61 1011.6
20260505124228 19 194 9.7 14.5 0.00 0.00 0.00 61 1011.6
20260505124123 19 230 4.8 9.7 0.00 0.00 0.00 61 1011.6
20260505124019 19 214 4.8 8.0 0.00 0.00 0.00 62 1011.5
20260505123950 19 191 4.8 6.4 0.00 0.00 0.00 62 1011.6
20260505123826 19 199 4.8 9.7 0.00 0.00 0.00 62 1011.6
20260505123721 18 214 4.8 9.7 0.00 0.00 0.00 62 1011.6
20260505123617 18 216 6.4 8.0 0.00 0.00 0.00 63 1011.6
20260505123609 19 189 9.7 14.5 0.00 0.00 0.00 61 1011.7
20260505123424 18 215 4.8 14.5 0.00 0.00 0.00 62 1011.7
20260505123320 18 230 9.7 14.5 0.00 0.00 0.00 62 1011.7
20260505123216 18 194 11.3 16.1 0.00 0.00 0.00 62 1011.6
20260505123127 18 210 8.0 12.9 0.00 0.00 0.00 63 1011.6
20260505123123 18 204 11.3 27.4 0.00 0.00 0.00 62 1011.5
20260505122939 19 207 14.5 27.4 0.00 0.00 0.00 61 1011.5
20260505122830 19 201 8.0 14.5 0.00 0.00 0.00 62 1011.4
20260505122746 18 182 4.8 6.4 0.00 0.00 0.00 63 1011.4
20260505122621 18 203 6.4 9.7 0.00 0.00 0.00 63 1011.5
20260505122517 18 213 6.4 9.7 0.00 0.00 0.00 63 1011.6
20260505122428 18 198 6.4 16.1 0.00 0.00 0.00 62 1011.6
20260505122324 18 234 6.4 14.5 0.00 0.00 0.00 62 1011.7
20260505122220 18 197 8.0 12.9 0.00 0.00 0.00 61 1011.5
20260505122115 18 215 6.4 11.3 0.00 0.00 0.00 62 1011.4
20260505122027 18 203 8.0 12.9 0.00 0.00 0.00 62 1011.4
20260505121922 19 213 8.0 9.7 0.00 0.00 0.00 62 1011.3
20260505121818 19 249 6.4 14.5 0.00 0.00 0.00 61 1011.6
20260505121730 19 218 4.8 8.0 0.00 0.00 0.00 63 1011.5
20260505121625 19 205 6.4 9.7 0.00 0.00 0.00 63 1011.5
20260505121521 18 185 1.6 3.2 0.00 0.00 0.00 62 1011.5
20260505121417 18 204 1.6 3.2 0.00 0.00 0.00 63 1011.7
20260505121328 18 219 6.4 16.1 0.00 0.00 0.00 63 1011.8
20260505121224 18 250 4.8 16.1 0.00 0.00 0.00 63 1011.6
20260505121119 18 222 9.7 16.1 0.00 0.00 0.00 64 1011.5
20260505121031 18 194 11.3 16.1 0.00 0.00 0.00 63 1011.7
20260505120926 18 193 6.4 6.4 0.00 0.00 0.00 64 1011.7
20260505120822 18 199 6.4 11.3 0.00 0.00 0.00 64 1011.6
20260505120717 18 191 8.0 11.3 0.00 0.00 0.00 64 1011.6
20260505120649 18 206 4.8 6.4 0.00 0.00 0.00 64 1011.8
20260505120525 18 226 6.4 11.3 0.00 0.00 0.00 64 1011.7
20260505120421 18 194 4.8 8.0 0.00 0.00 0.00 65 1011.5
20260505120316 18 196 1.6 6.4 0.00 0.00 0.00 65 1011.5
20260505120228 18 234 3.2 4.8 0.00 0.00 0.00 65 1011.5
20260505120123 18 190 1.6 6.4 0.00 0.00 0.00 66 1011.5
20260505120019 18 187 4.8 6.4 0.00 0.00 0.00 65 1011.8
20260505115930 18 192 4.8 6.4 0.00 0.00 0.00 65 1011.6
20260505115826 18 192 3.2 6.4 0.00 0.00 0.00 65 1011.5
20260505115722 18 224 4.8 8.0 0.00 0.00 0.00 65 1011.6
20260505115657 18 219 4.8 6.4 0.00 0.00 0.00 67 1011.6
20260505115528 18 204 6.4 8.0 0.00 0.00 0.00 67 1011.6
20260505115444 18 193 4.8 8.0 0.00 0.00 0.00 66 1011.6
20260505115340 18 204 4.8 8.0 0.00 0.00 0.00 67 1011.6
20260505115215 18 191 6.4 8.0 0.00 0.00 0.00 66 1011.6
20260505115127 17 225 4.8 6.4 0.00 0.00 0.00 67 1011.4
20260505115022 17 202 8.0 11.3 0.00 0.00 0.00 67 1011.6
20260505114918 17 201 8.0 11.3 0.00 0.00 0.00 67 1011.4
20260505114830 17 192 6.4 11.3 0.00 0.00 0.00 68 1011.5
20260505114725 17 192 3.2 6.4 0.00 0.00 0.00 68 1011.7
20260505114621 17 216 4.8 6.4 0.00 0.00 0.00 69 1011.7
20260505114516 17 197 6.4 8.0 0.00 0.00 0.00 69 1011.6
20260505114428 17 195 4.8 9.7 0.00 0.00 0.00 70 1011.8
20260505114404 17 199 6.4 8.0 0.00 0.00 0.00 70 1011.6
20260505114219 17 167 3.2 6.4 0.00 0.00 0.00 70 1011.8
20260505114131 17 188 8.0 11.3 0.00 0.00 0.00 70 1011.6
20260505114027 17 198 6.4 9.7 0.00 0.00 0.00 70 1011.6
20260505113922 17 189 8.0 9.7 0.00 0.00 0.00 70 1011.6
20260505113818 17 189 6.4 9.7 0.00 0.00 0.00 71 1011.7
20260505113809 16 202 4.8 8.0 0.00 0.00 0.00 71 1011.7
20260505113625 16 188 4.8 6.4 0.00 0.00 0.00 72 1011.7
20260505113540 16 191 3.2 6.4 0.00 0.00 0.00 72 1011.8
20260505113456 16 201 4.8 6.4 0.00 0.00 0.00 72 1011.9
20260505113327 16 194 4.8 9.7 0.00 0.00 0.00 73 1011.8
20260505113223 16 193 4.8 6.4 0.00 0.00 0.00 73 1011.6
20260505113119 16 191 4.8 6.4 0.00 0.00 0.00 73 1011.7
20260505113030 16 193 4.8 6.4 0.00 0.00 0.00 73 1011.7
20260505112926 16 195 4.8 8.0 0.00 0.00 0.00 73 1011.7
20260505112822 16 188 6.4 9.7 0.00 0.00 0.00 73 1011.7
20260505112717 16 199 4.8 6.4 0.00 0.00 0.00 74 1011.6
20260505112629 16 194 3.2 4.8 0.00 0.00 0.00 73 1011.8
20260505112525 16 194 4.8 6.4 0.00 0.00 0.00 74 1011.8
20260505112420 16 183 4.8 6.4 0.00 0.00 0.00 73 1011.8
20260505112316 16 190 6.4 9.7 0.00 0.00 0.00 73 1011.7
20260505112227 16 181 4.8 6.4 0.00 0.00 0.00 74 1011.7
20260505112123 16 188 3.2 4.8 0.00 0.00 0.00 74 1011.8
20260505112038 16 155 1.6 4.8 0.00 0.00 0.00 74 1011.7
20260505111930 16 185 3.2 6.4 0.00 0.00 0.00 75 1011.8
20260505111826 16 196 4.8 8.0 0.00 0.00 0.00 74 1011.6
20260505111721 16 184 4.8 4.8 0.00 0.00 0.00 75 1011.6
20260505111617 15 185 3.2 4.8 0.00 0.00 0.00 74 1011.8
20260505111529 15 192 4.8 6.4 0.00 0.00 0.00 75 1011.7
20260505111424 15 208 4.8 8.0 0.00 0.00 0.00 74 1011.7
20260505111320 15 184 4.8 6.4 0.00 0.00 0.00 74 1011.7
20260505111236 15 184 3.2 6.4 0.00 0.00 0.00 75 1011.6
20260505111127 15 187 3.2 4.8 0.00 0.00 0.00 75 1011.8
20260505111022 15 202 4.8 6.4 0.00 0.00 0.00 75 1011.8
20260505110918 15 189 4.8 6.4 0.00 0.00 0.00 75 1011.7
20260505110850 15 184 4.8 4.8 0.00 0.00 0.00 76 1011.6
20260505110725 15 181 3.2 4.8 0.00 0.00 0.00 76 1011.6
20260505110621 15 188 3.2 4.8 0.00 0.00 0.00 76 1011.6
20260505110517 15 179 3.2 4.8 0.00 0.00 0.00 76 1011.6
20260505110429 15 175 4.8 4.8 0.00 0.00 0.00 77 1011.7
20260505110324 15 165 1.6 3.2 0.00 0.00 0.00 77 1011.8
20260505110240 15 178 3.2 4.8 0.00 0.00 0.00 77 1011.5
20260505110115 15 201 3.2 4.8 0.00 0.00 0.00 77 1011.7
20260505102219 14 185 3.2 3.2 0.00 0.00 0.00 79 1011.6
20260505102115 13 200 4.8 6.4 0.00 0.00 0.00 79 1011.5
20260505102027 13 202 4.8 6.4 0.00 0.00 0.00 79 1011.8
20260505101923 13 205 1.6 4.8 0.00 0.00 0.00 79 1011.6
20260505101837 13 187 3.2 4.8 0.00 0.00 0.00 79 1011.7
20260505101729 13 207 1.6 6.4 0.00 0.00 0.00 79 1011.5
20260505101625 13 202 3.2 6.4 0.00 0.00 0.00 80 1011.6
20260505101520 13 201 4.8 4.8 0.00 0.00 0.00 80 1011.6
20260505101416 13 200 4.8 8.0 0.00 0.00 0.00 80 1011.6
20260505101327 13 209 3.2 6.4 0.00 0.00 0.00 80 1011.8
20260505101223 13 209 3.2 4.8 0.00 0.00 0.00 80 1011.5
20260505101118 13 203 3.2 4.8 0.00 0.00 0.00 80 1011.5
20260505101030 13 188 3.2 4.8 0.00 0.00 0.00 81 1011.4
20260505100925 13 169 1.6 3.2 0.00 0.00 0.00 81 1011.4
20260505100821 13 97 1.6 3.2 0.00 0.00 0.00 81 1011.5
20260505100757 13 84 3.2 3.2 0.00 0.00 0.00 81 1011.5
20260505100628 13 178 1.6 3.2 0.00 0.00 0.00 81 1011.4
20260505100524 13 222 1.6 3.2 0.00 0.00 0.00 81 1011.3
20260505100439 13 228 1.6 4.8 0.00 0.00 0.00 81 1011.5
20260505100315 13 186 3.2 4.8 0.00 0.00 0.00 81 1011.4
20260505100227 13 213 3.2 4.8 0.00 0.00 0.00 81 1011.5
20260505100122 13 193 3.2 6.4 0.00 0.00 0.00 81 1011.4
20260505100038 13 185 4.8 6.4 0.00 0.00 0.00 81 1011.2
20260505095950 13 204 3.2 8.0 0.00 0.00 0.00 81 1011.7
20260505095825 13 214 4.8 8.0 0.00 0.00 0.00 82 1011.5
20260505095741 13 181 1.6 4.8 0.00 0.00 0.00 82 1011.3
20260505095616 13 198 4.8 9.7 0.00 0.00 0.00 82 1011.4
20260505095528 13 187 4.8 6.4 0.00 0.00 0.00 82 1011.3
20260505095423 13 189 4.8 6.4 0.00 0.00 0.00 82 1011.5
20260505095319 13 190 3.2 4.8 0.00 0.00 0.00 82 1011.2
20260505095231 13 197 1.6 3.2 0.00 0.00 0.00 82 1011.2
20260505095126 13 183 1.6 4.8 0.00 0.00 0.00 82 1011.5
20260505095022 13 210 3.2 6.4 0.00 0.00 0.00 82 1011.2
20260505094938 12 184 3.2 4.8 0.00 0.00 0.00 82 1011.2
20260505094909 12 183 3.2 4.8 0.00 0.00 0.00 82 1011.1
20260505094725 12 169 1.6 4.8 0.00 0.00 0.00 82 1011.2
20260505094640 12 144 1.6 3.2 0.00 0.00 0.00 82 1011.1
20260505094516 12 172 1.6 3.2 0.00 0.00 0.00 82 1011.2
20260505094428 13 165 0.0 3.2 0.00 0.00 0.00 82 1011.0
20260505094343 13 155 0.0 1.6 0.00 0.00 0.00 82 1010.9
20260505094239 13 154 0.0 3.2 0.00 0.00 0.00 82 1011.1
20260505094130 13 186 1.6 4.8 0.00 0.00 0.00 82 1011.0
20260505094026 13 202 3.2 3.2 0.00 0.00 0.00 82 1010.9
20260505093942 13 176 3.2 4.8 0.00 0.00 0.00 82 1010.8
20260505093817 13 187 3.2 4.8 0.00 0.00 0.00 82 1010.9
20260505093729 13 208 1.6 3.2 0.00 0.00 0.00 82 1010.9
20260505093645 13 201 3.2 4.8 0.00 0.00 0.00 82 1010.7
20260505093541 13 188 1.6 3.2 0.00 0.00 0.00 82 1010.5
20260505093416 13 190 1.6 3.2 0.00 0.00 0.00 82 1010.6
20260505093347 13 181 1.6 3.2 0.00 0.00 0.00 82 1010.7
20260505093222 13 191 1.6 3.2 0.00 0.00 0.00 82 1010.7
20260505093138 13 190 1.6 3.2 0.00 0.00 0.00 82 1010.8
20260505093050 13 194 1.6 3.2 0.00 0.00 0.00 82 1010.8
20260505092926 13 0.0 1.6 0.00 0.00 0.00 82 1010.6
20260505092821 13 0.0 1.6 0.00 0.00 0.00 82 1010.4
20260505092717 13 162 0.0 3.2 0.00 0.00 0.00 82 1010.5
20260505092628 13 262 0.0 3.2 0.00 0.00 0.00 82 1010.6
20260505092524 13 193 3.2 4.8 0.00 0.00 0.00 82 1010.5
20260505092440 12 196 3.2 4.8 0.00 0.00 0.00 82 1010.6
20260505092315 12 192 3.2 3.2 0.00 0.00 0.00 82 1010.6
20260505092227 12 95 0.0 3.2 0.00 0.00 0.00 83 1010.7
20260505092122 12 170 1.6 3.2 0.00 0.00 0.00 83 1010.4
20260505092018 12 172 1.6 3.2 0.00 0.00 0.00 83 1010.6
20260505092010 12 166 0.0 3.2 0.00 0.00 0.00 83 1010.5
20260505091825 12 0.0 3.2 0.00 0.00 0.00 83 1010.5
20260505091721 12 0.0 1.6 0.00 0.00 0.00 83 1010.5
20260505091616 12 192 0.0 3.2 0.00 0.00 0.00 83 1010.5
20260505091528 12 305 0.0 1.6 0.00 0.00 0.00 83 1010.6
20260505091424 12 0.0 1.6 0.00 0.00 0.00 83 1010.5
20260505091319 12 174 1.6 3.2 0.00 0.00 0.00 83 1010.4
20260505091231 12 179 1.6 4.8 0.00 0.00 0.00 83 1010.5
20260505091146 12 198 0.0 3.2 0.00 0.00 0.00 83 1010.5
20260505091021 12 171 1.6 4.8 0.00 0.00 0.00 83 1010.6
20260505090917 12 183 3.2 3.2 0.00 0.00 0.00 84 1010.6
20260505090849 12 140 1.6 3.2 0.00 0.00 0.00 84 1010.7
20260505090745 12 208 1.6 3.2 0.00 0.00 0.00 84 1010.7
20260505090640 12 266 1.6 3.2 0.00 0.00 0.00 85 1010.7
20260505090515 12 186 1.6 3.2 0.00 0.00 0.00 85 1010.6
20260505090427 12 177 0.0 3.2 0.00 0.00 0.00 85 1010.8
20260505090323 12 209 1.6 3.2 0.00 0.00 0.00 86 1010.8
20260505090218 12 128 1.6 3.2 0.00 0.00 0.00 86 1010.8
20260505090130 12 128 1.6 3.2 0.00 0.00 0.00 86 1010.7
20260505090025 12 134 1.6 3.2 0.00 0.00 0.00 86 1010.7
20260505085921 12 133 0.0 3.2 0.00 0.00 0.00 86 1010.6
20260505085817 12 178 0.0 1.6 0.00 0.00 0.00 86 1010.8
20260505085728 12 0.0 1.6 0.00 0.00 0.00 86 1010.7
20260505085624 12 154 1.6 4.8 0.00 0.00 0.00 86 1010.6
20260505085519 12 129 1.6 4.8 0.00 0.00 0.00 86 1010.7
20260505085430 12 136 1.6 3.2 0.00 0.00 0.00 86 1010.7
20260505085326 12 166 1.6 3.2 0.00 0.00 0.00 87 1010.8
20260505085222 11 206 3.2 4.8 0.00 0.00 0.00 88 1010.6
20260505085137 11 150 1.6 3.2 0.00 0.00 0.00 88 1010.8
20260505085028 11 111 1.6 3.2 0.00 0.00 0.00 88 1010.5
20260505084924 11 189 1.6 4.8 0.00 0.00 0.00 89 1010.6
20260505084819 11 199 3.2 3.2 0.00 0.00 0.00 89 1010.7
20260505084731 11 200 1.6 3.2 0.00 0.00 0.00 90 1010.7
20260505084627 11 33 1.6 1.6 0.00 0.00 0.00 90 1010.8
20260505084522 11 131 1.6 3.2 0.00 0.00 0.00 89 1010.6
20260505084438 11 105 0.0 1.6 0.00 0.00 0.00 89 1010.7
20260505084329 11 0.0 3.2 0.00 0.00 0.00 89 1010.8
20260505084225 11 123 0.0 3.2 0.00 0.00 0.00 89 1010.6
20260505084121 11 109 1.6 3.2 0.00 0.00 0.00 89 1010.8
20260505084016 11 140 1.6 3.2 0.00 0.00 0.00 89 1010.7
20260505083928 11 158 1.6 3.2 0.00 0.00 0.00 89 1010.7
20260505083823 11 121 1.6 3.2 0.00 0.00 0.00 89 1010.5
20260505083719 11 40 0.0 1.6 0.00 0.00 0.00 89 1010.9
20260505083631 11 112 1.6 1.6 0.00 0.00 0.00 89 1010.6
20260505083526 11 0.0 3.2 0.00 0.00 0.00 89 1010.8
20260505083422 11 69 1.6 3.2 0.00 0.00 0.00 89 1010.8
20260505083337 11 81 1.6 3.2 0.00 0.00 0.00 89 1010.6
20260505083229 11 0.0 3.2 0.00 0.00 0.00 89 1010.7
20260505083125 11 60 1.6 3.2 0.00 0.00 0.00 89 1010.5
20260505083020 11 0.0 1.6 0.00 0.00 0.00 89 1010.7
20260505082936 11 0.0 3.2 0.00 0.00 0.00 89 1010.7
20260505082827 11 0.0 3.2 0.00 0.00 0.00 89 1010.8
20260505082723 11 77 0.0 3.2 0.00 0.00 0.00 89 1010.7
20260505082639 11 87 1.6 3.2 0.00 0.00 0.00 89 1010.8
20260505082530 11 65 1.6 3.2 0.00 0.00 0.00 89 1010.7
20260505082426 11 112 1.6 3.2 0.00 0.00 0.00 89 1010.8
20260505082321 11 124 1.6 4.8 0.00 0.00 0.00 89 1010.7
20260505082217 11 134 1.6 3.2 0.00 0.00 0.00 89 1010.8
20260505082129 11 132 1.6 6.4 0.00 0.00 0.00 89 1010.7
20260505082024 11 127 3.2 4.8 0.00 0.00 0.00 89 1010.6
20260505082000 11 145 0.0 3.2 0.00 0.00 0.00 89 1010.6
20260505081815 11 138 0.0 3.2 0.00 0.00 0.00 88 1010.7
20260505081727 11 85 0.0 3.2 0.00 0.00 0.00 88 1010.7
20260505081623 11 98 1.6 1.6 0.00 0.00 0.00 88 1010.5
20260505081519 11 82 0.0 3.2 0.00 0.00 0.00 88 1010.6
20260505081430 11 162 0.0 3.2 0.00 0.00 0.00 88 1010.5
20260505081325 11 0.0 3.2 0.00 0.00 0.00 88 1010.8
20260505081221 11 143 1.6 3.2 0.00 0.00 0.00 88 1010.5
20260505081117 11 123 3.2 4.8 0.00 0.00 0.00 88 1010.4
20260505081048 11 109 1.6 4.8 0.00 0.00 0.00 88 1010.7
20260505080924 11 122 1.6 3.2 0.00 0.00 0.00 88 1010.6
20260505080820 11 0.0 1.6 0.00 0.00 0.00 87 1010.6
20260505080715 11 155 0.0 1.6 0.00 0.00 0.00 87 1010.8
20260505080647 11 186 1.6 3.2 0.00 0.00 0.00 87 1010.7
20260505080523 11 174 1.6 3.2 0.00 0.00 0.00 87 1010.4
20260505080418 11 151 3.2 4.8 0.00 0.00 0.00 87 1010.6
20260505080330 11 135 1.6 3.2 0.00 0.00 0.00 87 1010.5
20260505080225 11 126 3.2 3.2 0.00 0.00 0.00 87 1010.7
20260505080121 11 130 3.2 3.2 0.00 0.00 0.00 87 1010.7
20260505080016 11 133 1.6 3.2 0.00 0.00 0.00 87 1010.7
20260505075928 11 101 1.6 3.2 0.00 0.00 0.00 87 1010.7
20260505075824 11 82 1.6 3.2 0.00 0.00 0.00 86 1010.7
20260505075719 11 0.0 0.0 0.00 0.00 0.00 86 1010.7
20260505075615 11 174 0.0 3.2 0.00 0.00 0.00 86 1010.6
20260505075526 11 0.0 1.6 0.00 0.00 0.00 86 1010.6
20260505075442 11 330 0.0 3.2 0.00 0.00 0.00 86 1010.7
20260505075338 11 133 1.6 3.2 0.00 0.00 0.00 86 1010.8
20260505075249 11 126 1.6 1.6 0.00 0.00 0.00 86 1010.6
20260505075145 11 118 1.6 3.2 0.00 0.00 0.00 86 1010.7
20260505075021 11 118 1.6 3.2 0.00 0.00 0.00 86 1010.7
20260505074916 11 128 1.6 3.2 0.00 0.00 0.00 86 1010.7
20260505074828 11 122 1.6 3.2 0.00 0.00 0.00 86 1010.6
20260505074723 11 119 3.2 3.2 0.00 0.00 0.00 86 1010.7
20260505074619 11 124 1.6 3.2 0.00 0.00 0.00 86 1010.8
20260505074530 11 136 1.6 3.2 0.00 0.00 0.00 86 1010.8
20260505074426 11 147 1.6 3.2 0.00 0.00 0.00 86 1010.8
20260505074322 11 142 3.2 3.2 0.00 0.00 0.00 86 1010.7
20260505074217 11 145 3.2 3.2 0.00 0.00 0.00 86 1010.6
20260505074129 11 134 1.6 3.2 0.00 0.00 0.00 86 1010.5
20260505074025 11 143 3.2 3.2 0.00 0.00 0.00 86 1010.7
20260505073920 11 116 1.6 3.2 0.00 0.00 0.00 86 1010.7
20260505073816 11 120 1.6 3.2 0.00 0.00 0.00 86 1010.7
20260505073748 11 0.0 3.2 0.00 0.00 0.00 86 1010.8
20260505073623 11 106 1.6 3.2 0.00 0.00 0.00 86 1010.7
20260505073519 11 121 1.6 3.2 0.00 0.00 0.00 86 1010.6
20260505073430 11 108 1.6 3.2 0.00 0.00 0.00 85 1010.7
20260505073326 11 120 1.6 3.2 0.00 0.00 0.00 85 1010.6
20260505073221 11 0.0 3.2 0.00 0.00 0.00 85 1010.8
20260505073117 11 0.0 1.6 0.00 0.00 0.00 85 1010.8
20260505073028 11 194 1.6 3.2 0.00 0.00 0.00 85 1010.7
20260505072924 11 178 1.6 1.6 0.00 0.00 0.00 85 1010.7
20260505072819 11 0.0 1.6 0.00 0.00 0.00 86 1010.7
20260505072715 11 122 1.6 3.2 0.00 0.00 0.00 86 1010.7
20260505072627 11 122 1.6 3.2 0.00 0.00 0.00 86 1010.5
20260505072523 11 128 3.2 3.2 0.00 0.00 0.00 85 1010.7
20260505072418 11 154 1.6 3.2 0.00 0.00 0.00 85 1010.5
20260505072330 11 158 3.2 3.2 0.00 0.00 0.00 85 1010.6
20260505072225 11 152 3.2 3.2 0.00 0.00 0.00 85 1010.6
20260505072121 11 134 1.6 3.2 0.00 0.00 0.00 85 1010.5
20260505072016 11 119 1.6 3.2 0.00 0.00 0.00 85 1010.7
20260505071948 11 137 1.6 3.2 0.00 0.00 0.00 85 1010.7
20260505071824 11 122 1.6 3.2 0.00 0.00 0.00 85 1010.7
20260505071719 11 133 0.0 1.6 0.00 0.00 0.00 85 1010.6
20260505071615 11 0.0 1.6 0.00 0.00 0.00 85 1010.8
20260505071527 11 0.0 0.0 0.00 0.00 0.00 85 1010.7
20260505071422 11 0.0 1.6 0.00 0.00 0.00 85 1010.6
20260505071318 11 125 0.0 3.2 0.00 0.00 0.00 85 1010.8
20260505071229 11 113 0.0 3.2 0.00 0.00 0.00 85 1010.6
20260505071125 11 358 1.6 3.2 0.00 0.00 0.00 85 1010.7
20260505071021 11 24 1.6 3.2 0.00 0.00 0.00 85 1010.7
20260505070936 11 56 1.6 3.2 0.00 0.00 0.00 85 1010.7
20260505070828 11 87 1.6 3.2 0.00 0.00 0.00 85 1010.8
20260505070723 11 111 1.6 4.8 0.00 0.00 0.00 85 1010.5
20260505070619 11 92 1.6 3.2 0.00 0.00 0.00 85 1010.8
20260505070531 11 0.0 1.6 0.00 0.00 0.00 84 1010.8
20260505070426 11 0.0 1.6 0.00 0.00 0.00 84 1010.5
20260505070322 11 0.0 0.0 0.00 0.00 0.00 84 1010.6
20260505070218 11 0.0 1.6 0.00 0.00 0.00 84 1010.7
20260505070129 11 168 1.6 1.6 0.00 0.00 0.00 84 1010.8
20260505070025 11 0.0 1.6 0.00 0.00 0.00 84 1010.8
20260505065921 11 125 1.6 3.2 0.00 0.00 0.00 84 1010.6
20260505065816 11 109 1.6 3.2 0.00 0.00 0.00 84 1010.6
20260505065728 11 0.0 1.6 0.00 0.00 0.00 84 1010.6
20260505065624 11 106 0.0 3.2 0.00 0.00 0.00 84 1010.7
20260505065519 11 105 1.6 3.2 0.00 0.00 0.00 84 1010.6
20260505065431 11 100 1.6 3.2 0.00 0.00 0.00 84 1010.8
20260505065326 11 111 1.6 3.2 0.00 0.00 0.00 84 1010.5
20260505065222 11 124 1.6 3.2 0.00 0.00 0.00 84 1010.7
20260505065117 11 129 1.6 3.2 0.00 0.00 0.00 84 1010.9
20260505065029 11 106 1.6 3.2 0.00 0.00 0.00 84 1010.7
20260505064945 11 111 1.6 3.2 0.00 0.00 0.00 84 1010.7
20260505064820 11 117 1.6 3.2 0.00 0.00 0.00 84 1010.5
20260505064716 11 121 1.6 3.2 0.00 0.00 0.00 84 1010.7
20260505064627 11 114 1.6 3.2 0.00 0.00 0.00 84 1010.6
20260505064523 11 145 1.6 3.2 0.00 0.00 0.00 83 1010.5
20260505064419 11 136 1.6 3.2 0.00 0.00 0.00 83 1010.5
20260505064330 11 130 1.6 3.2 0.00 0.00 0.00 83 1010.5
20260505064226 11 127 1.6 3.2 0.00 0.00 0.00 83 1010.6
20260505064202 11 130 1.6 3.2 0.00 0.00 0.00 83 1010.6
20260505064017 11 125 1.6 3.2 0.00 0.00 0.00 83 1010.7
20260505063929 11 132 1.6 3.2 0.00 0.00 0.00 83 1010.6
20260505063904 11 124 1.6 3.2 0.00 0.00 0.00 83 1010.7
20260505063719 11 138 1.6 3.2 0.00 0.00 0.00 83 1010.5
20260505063615 11 117 1.6 3.2 0.00 0.00 0.00 83 1010.5
20260505063527 11 106 1.6 3.2 0.00 0.00 0.00 83 1010.6
20260505063422 11 119 1.6 3.2 0.00 0.00 0.00 83 1010.7
20260505063318 11 117 1.6 3.2 0.00 0.00 0.00 83 1010.7
20260505063229 11 98 0.0 1.6 0.00 0.00 0.00 83 1010.7
20260505063145 11 98 0.0 1.6 0.00 0.00 0.00 83 1010.6
20260505063021 11 118 0.0 1.6 0.00 0.00 0.00 83 1010.6
20260505062916 11 133 1.6 1.6 0.00 0.00 0.00 83 1010.5
20260505062848 11 130 1.6 3.2 0.00 0.00 0.00 83 1010.6
20260505062744 11 121 3.2 3.2 0.00 0.00 0.00 83 1010.6
20260505062619 11 119 1.6 3.2 0.00 0.00 0.00 83 1010.5
20260505062531 11 124 1.6 3.2 0.00 0.00 0.00 83 1010.6
20260505062426 11 119 1.6 3.2 0.00 0.00 0.00 83 1010.7
20260505062402 11 122 1.6 3.2 0.00 0.00 0.00 83 1010.7
20260505062217 11 108 1.6 3.2 0.00 0.00 0.00 83 1010.8
20260505062129 11 127 1.6 3.2 0.00 0.00 0.00 82 1010.9
20260505062025 11 118 1.6 1.6 0.00 0.00 0.00 82 1010.6
20260505061920 11 133 0.0 1.6 0.00 0.00 0.00 82 1010.6
20260505061816 11 114 1.6 3.2 0.00 0.00 0.00 82 1010.7
20260505061728 11 145 1.6 3.2 0.00 0.00 0.00 82 1010.7
20260505061623 11 109 1.6 3.2 0.00 0.00 0.00 82 1010.7
20260505061519 11 156 1.6 3.2 0.00 0.00 0.00 82 1010.7
20260505061430 11 141 1.6 1.6 0.00 0.00 0.00 82 1010.7
20260505061326 11 162 0.0 3.2 0.00 0.00 0.00 82 1010.6
20260505061221 11 134 1.6 3.2 0.00 0.00 0.00 82 1010.9
20260505061117 11 144 0.0 3.2 0.00 0.00 0.00 82 1010.9
20260505061028 11 127 1.6 3.2 0.00 0.00 0.00 82 1010.7
20260505060944 11 0.0 3.2 0.00 0.00 0.00 81 1010.7
20260505060820 11 115 1.6 3.2 0.00 0.00 0.00 81 1010.7
20260505060715 11 118 1.6 3.2 0.00 0.00 0.00 81 1010.8
20260505060627 11 130 1.6 3.2 0.00 0.00 0.00 81 1010.8
20260505060522 11 111 1.6 3.2 0.00 0.00 0.00 81 1010.8
20260505060418 11 121 1.6 3.2 0.00 0.00 0.00 81 1010.7
20260505060329 11 137 3.2 3.2 0.00 0.00 0.00 80 1010.9
20260505060225 11 139 3.2 3.2 0.00 0.00 0.00 80 1010.9
20260505060121 11 125 1.6 3.2 0.00 0.00 0.00 80 1010.8
20260505060016 11 141 1.6 3.2 0.00 0.00 0.00 80 1010.7
20260505055928 12 130 0.0 3.2 0.00 0.00 0.00 80 1011.0
20260505055824 12 127 1.6 3.2 0.00 0.00 0.00 80 1010.7
20260505055719 12 132 1.6 3.2 0.00 0.00 0.00 80 1010.8
20260505055631 12 134 1.6 3.2 0.00 0.00 0.00 80 1010.7
20260505055526 12 128 0.0 3.2 0.00 0.00 0.00 80 1010.7
20260505055422 12 129 1.6 3.2 0.00 0.00 0.00 79 1010.6
20260505055317 12 0.0 3.2 0.00 0.00 0.00 79 1010.9
20260505055229 12 132 1.6 3.2 0.00 0.00 0.00 79 1011.1
20260505055124 12 142 1.6 3.2 0.00 0.00 0.00 79 1010.7
20260505055100 12 141 1.6 3.2 0.00 0.00 0.00 79 1010.9
20260505054916 12 178 0.0 3.2 0.00 0.00 0.00 79 1010.8
20260505054907 12 0.0 1.6 0.00 0.00 0.00 79 1010.8
20260505054743 12 191 3.2 3.2 0.00 0.00 0.00 79 1010.8
20260505054639 12 4 1.6 3.2 0.00 0.00 0.00 79 1010.9
20260505054530 12 357 1.6 3.2 0.00 0.00 0.00 79 1010.9
20260505054446 12 0.0 1.6 0.00 0.00 0.00 79 1010.7
20260505054341 12 0.0 1.6 0.00 0.00 0.00 79 1010.9
20260505054217 12 0.0 0.0 0.00 0.00 0.00 79 1010.7
20260505054149 12 0.0 1.6 0.00 0.00 0.00 80 1010.8
20260505054024 12 0.0 1.6 0.00 0.00 0.00 80 1010.9
20260505053940 11 0.0 1.6 0.00 0.00 0.00 80 1010.8
20260505053816 11 0.0 1.6 0.00 0.00 0.00 80 1010.7
20260505053727 11 129 0.0 1.6 0.00 0.00 0.00 80 1010.7
20260505053623 11 123 1.6 3.2 0.00 0.00 0.00 80 1010.6
20260505053518 11 0.0 1.6 0.00 0.00 0.00 80 1010.8
20260505053430 11 127 1.6 3.2 0.00 0.00 0.00 80 1010.9
20260505053326 11 115 0.0 3.2 0.00 0.00 0.00 80 1010.7
20260505053242 11 126 1.6 1.6 0.00 0.00 0.00 80 1010.7
20260505053117 11 67 0.0 3.2 0.00 0.00 0.00 80 1010.8
20260505053029 11 147 1.6 1.6 0.00 0.00 0.00 80 1010.8
20260505052924 11 0.0 0.0 0.00 0.00 0.00 80 1010.8
20260505052820 11 0.0 1.6 0.00 0.00 0.00 80 1010.7
20260505052715 11 0.0 1.6 0.00 0.00 0.00 80 1010.9
20260505052627 11 97 1.6 3.2 0.00 0.00 0.00 80 1011.0
20260505052522 11 141 1.6 3.2 0.00 0.00 0.00 80 1010.8
20260505052418 11 122 1.6 3.2 0.00 0.00 0.00 80 1010.7
20260505052330 11 131 1.6 3.2 0.00 0.00 0.00 79 1010.9
20260505052245 11 129 1.6 3.2 0.00 0.00 0.00 79 1011.0
20260505052121 11 100 1.6 3.2 0.00 0.00 0.00 79 1010.8
20260505052016 11 116 1.6 3.2 0.00 0.00 0.00 79 1011.0
20260505051928 11 0.0 1.6 0.00 0.00 0.00 79 1010.9
20260505051824 11 138 0.0 1.6 0.00 0.00 0.00 79 1010.8
20260505051719 11 0.0 1.6 0.00 0.00 0.00 79 1010.9
20260505051651 11 0.0 1.6 0.00 0.00 0.00 79 1010.9
20260505051526 11 0.0 1.6 0.00 0.00 0.00 79 1011.0
20260505051422 11 160 0.0 3.2 0.00 0.00 0.00 79 1011.1
20260505051318 11 126 1.6 3.2 0.00 0.00 0.00 78 1011.0
20260505051229 11 139 0.0 3.2 0.00 0.00 0.00 78 1010.9
20260505051125 11 144 1.6 3.2 0.00 0.00 0.00 78 1011.0
20260505051021 12 141 1.6 3.2 0.00 0.00 0.00 78 1010.9
20260505050915 12 138 1.6 3.2 0.00 0.00 0.00 78 1010.9
20260505050827 12 0.0 3.2 0.00 0.00 0.00 78 1010.9
20260505050723 12 0.0 1.6 0.00 0.00 0.00 78 1010.9
20260505050618 12 0.0 1.6 0.00 0.00 0.00 78 1011.1
20260505050530 12 0.0 1.6 0.00 0.00 0.00 78 1011.0
20260505050445 12 0.0 1.6 0.00 0.00 0.00 78 1010.9
20260505050321 12 0.0 1.6 0.00 0.00 0.00 78 1011.0
20260505050237 12 145 1.6 3.2 0.00 0.00 0.00 78 1010.9
20260505050128 12 142 1.6 3.2 0.00 0.00 0.00 77 1011.1
20260505041726 13 138 1.6 3.2 0.00 0.00 0.00 71 1011.3
20260505041642 13 127 1.6 3.2 0.00 0.00 0.00 70 1011.1
20260505041517 13 131 1.6 3.2 0.00 0.00 0.00 70 1011.3
20260505041429 13 179 1.6 1.6 0.00 0.00 0.00 70 1011.2
20260505041325 13 0.0 1.6 0.00 0.00 0.00 70 1011.3
20260505041220 13 0.0 1.6 0.00 0.00 0.00 70 1011.2
20260505041116 13 42 0.0 1.6 0.00 0.00 0.00 70 1011.4
20260505041047 13 139 1.6 1.6 0.00 0.00 0.00 70 1011.2
20260505040923 13 83 1.6 1.6 0.00 0.00 0.00 70 1011.4
20260505040819 13 0.0 0.0 0.00 0.00 0.00 70 1011.4
20260505040730 13 0.0 0.0 0.00 0.00 0.00 70 1011.2
20260505040706 13 0.0 1.6 0.00 0.00 0.00 70 1011.1
20260505040521 13 149 1.6 3.2 0.00 0.00 0.00 70 1011.1
20260505040417 13 83 1.6 3.2 0.00 0.00 0.00 70 1011.1
20260505040348 13 93 1.6 3.2 0.00 0.00 0.00 70 1011.2
20260505040224 13 129 1.6 3.2 0.00 0.00 0.00 69 1011.4
20260505040120 13 133 1.6 3.2 0.00 0.00 0.00 69 1011.2
20260505040015 13 142 0.0 3.2 0.00 0.00 0.00 69 1011.3
20260505035927 13 98 0.0 1.6 0.00 0.00 0.00 69 1011.5
20260505035822 13 114 1.6 3.2 0.00 0.00 0.00 69 1011.2
20260505035718 13 128 1.6 3.2 0.00 0.00 0.00 69 1011.3
20260505035630 13 99 1.6 3.2 0.00 0.00 0.00 69 1011.1
20260505035525 13 86 1.6 3.2 0.00 0.00 0.00 69 1011.2
20260505035421 13 0.0 1.6 0.00 0.00 0.00 68 1011.1
20260505035336 13 131 1.6 3.2 0.00 0.00 0.00 68 1011.3
20260505035248 13 124 1.6 3.2 0.00 0.00 0.00 68 1011.2
20260505035144 13 0.0 3.2 0.00 0.00 0.00 68 1011.2
20260505035019 13 131 1.6 3.2 0.00 0.00 0.00 68 1011.2
20260505034931 14 84 0.0 3.2 0.00 0.00 0.00 67 1011.3
20260505034826 14 96 1.6 1.6 0.00 0.00 0.00 67 1011.1
20260505034722 13 325 1.6 3.2 0.00 0.00 0.00 67 1011.3
20260505034617 13 53 0.0 3.2 0.00 0.00 0.00 67 1011.3
20260505034529 13 0.0 0.0 0.00 0.00 0.00 68 1011.2
20260505034425 14 122 1.6 3.2 0.00 0.00 0.00 67 1011.2
20260505034320 14 95 0.0 3.2 0.00 0.00 0.00 67 1011.2
20260505034236 14 228 0.0 1.6 0.00 0.00 0.00 67 1011.1
20260505034127 13 0.0 1.6 0.00 0.00 0.00 67 1011.1
20260505034023 13 74 1.6 1.6 0.00 0.00 0.00 68 1011.3
20260505033918 13 25 0.0 1.6 0.00 0.00 0.00 67 1011.3
20260505033830 13 0.0 1.6 0.00 0.00 0.00 67 1011.2
20260505033746 13 125 1.6 3.2 0.00 0.00 0.00 67 1011.2
20260505033621 14 140 1.6 3.2 0.00 0.00 0.00 67 1011.3
20260505033537 14 128 1.6 3.2 0.00 0.00 0.00 67 1011.4
20260505033429 14 127 1.6 3.2 0.00 0.00 0.00 66 1011.2
20260505033324 14 124 1.6 3.2 0.00 0.00 0.00 66 1011.2
20260505033220 14 112 0.0 3.2 0.00 0.00 0.00 66 1011.4
20260505033115 14 119 0.0 3.2 0.00 0.00 0.00 66 1011.3
20260505033027 14 120 3.2 4.8 0.00 0.00 0.00 66 1011.2
20260505032923 14 126 1.6 3.2 0.00 0.00 0.00 66 1011.3
20260505032818 14 135 1.6 3.2 0.00 0.00 0.00 66 1011.4
20260505032730 14 131 1.6 3.2 0.00 0.00 0.00 65 1011.2
20260505032625 14 115 1.6 3.2 0.00 0.00 0.00 65 1011.3
20260505032541 14 142 0.0 1.6 0.00 0.00 0.00 65 1011.4
20260505032417 14 101 1.6 3.2 0.00 0.00 0.00 64 1011.5
20260505032328 14 127 1.6 3.2 0.00 0.00 0.00 64 1011.4
20260505032224 14 137 1.6 3.2 0.00 0.00 0.00 64 1011.4
20260505032120 15 130 0.0 1.6 0.00 0.00 0.00 64 1011.2
20260505032015 15 0.0 3.2 0.00 0.00 0.00 64 1011.3
20260505031927 15 146 1.6 3.2 0.00 0.00 0.00 64 1011.6
20260505031822 15 106 1.6 3.2 0.00 0.00 0.00 63 1011.3
20260505031738 15 145 1.6 3.2 0.00 0.00 0.00 63 1011.4
20260505031630 15 143 1.6 3.2 0.00 0.00 0.00 63 1011.3
20260505031525 15 147 0.0 3.2 0.00 0.00 0.00 63 1011.5
20260505031441 15 127 1.6 3.2 0.00 0.00 0.00 63 1011.4
20260505031316 15 131 1.6 3.2 0.00 0.00 0.00 62 1011.6
20260505031248 15 161 1.6 3.2 0.00 0.00 0.00 62 1011.4
20260505031124 15 208 1.6 3.2 0.00 0.00 0.00 62 1011.5
20260505031039 15 134 1.6 3.2 0.00 0.00 0.00 62 1011.6
20260505030931 15 134 1.6 3.2 0.00 0.00 0.00 62 1011.5
20260505030826 15 197 1.6 3.2 0.00 0.00 0.00 61 1011.4
20260505030722 15 0.0 3.2 0.00 0.00 0.00 61 1011.5
20260505030638 15 130 1.6 3.2 0.00 0.00 0.00 61 1011.4
20260505030529 15 106 1.6 4.8 0.00 0.00 0.00 61 1011.6
20260505030425 15 191 1.6 3.2 0.00 0.00 0.00 60 1011.6
20260505030320 15 180 1.6 3.2 0.00 0.00 0.00 61 1011.5
20260505030216 15 183 1.6 3.2 0.00 0.00 0.00 61 1011.6
20260505030128 15 155 3.2 4.8 0.00 0.00 0.00 61 1011.5
20260505030023 15 183 4.8 9.7 0.00 0.00 0.00 60 1011.7
20260505025919 15 195 4.8 8.0 0.00 0.00 0.00 61 1011.5
20260505025831 15 183 3.2 3.2 0.00 0.00 0.00 61 1011.4
20260505025726 15 186 1.6 3.2 0.00 0.00 0.00 61 1011.5
20260505025702 15 188 1.6 4.8 0.00 0.00 0.00 61 1011.7
20260505025517 15 151 1.6 3.2 0.00 0.00 0.00 61 1011.5
20260505025429 15 167 3.2 6.4 0.00 0.00 0.00 61 1011.5
20260505025324 15 180 3.2 4.8 0.00 0.00 0.00 61 1011.4
20260505025220 15 144 3.2 3.2 0.00 0.00 0.00 61 1011.4
20260505025116 15 229 1.6 4.8 0.00 0.00 0.00 61 1011.6
20260505025028 15 127 1.6 3.2 0.00 0.00 0.00 61 1011.4
20260505024923 15 0.0 3.2 0.00 0.00 0.00 61 1011.4
20260505024818 15 119 1.6 3.2 0.00 0.00 0.00 61 1011.6
20260505024730 15 169 1.6 4.8 0.00 0.00 0.00 61 1011.5
20260505024646 15 201 3.2 4.8 0.00 0.00 0.00 60 1011.3
20260505024521 15 99 0.0 3.2 0.00 0.00 0.00 60 1011.6
20260505024417 15 67 1.6 3.2 0.00 0.00 0.00 61 1011.5
20260505024348 15 127 1.6 3.2 0.00 0.00 0.00 60 1011.3
20260505024224 15 120 1.6 1.6 0.00 0.00 0.00 60 1011.2
20260505024120 15 127 1.6 3.2 0.00 0.00 0.00 60 1011.4
20260505024015 15 126 1.6 3.2 0.00 0.00 0.00 60 1011.4
20260505023927 15 137 3.2 4.8 0.00 0.00 0.00 60 1011.4
20260505023822 15 129 0.0 3.2 0.00 0.00 0.00 60 1011.4
20260505023718 15 143 1.6 3.2 0.00 0.00 0.00 59 1011.6
20260505023630 15 136 1.6 3.2 0.00 0.00 0.00 59 1011.3
20260505023545 16 168 1.6 3.2 0.00 0.00 0.00 59 1011.5
20260505023421 16 125 3.2 4.8 0.00 0.00 0.00 59 1011.4
20260505023316 16 137 1.6 3.2 0.00 0.00 0.00 58 1011.6
20260505023228 16 145 1.6 3.2 0.00 0.00 0.00 58 1011.6
20260505023144 16 99 1.6 3.2 0.00 0.00 0.00 58 1011.4
20260505023019 16 110 3.2 4.8 0.00 0.00 0.00 57 1011.6
20260505022951 16 123 3.2 3.2 0.00 0.00 0.00 57 1011.5
20260505022827 16 185 3.2 6.4 0.00 0.00 0.00 56 1011.6
20260505022722 16 196 1.6 4.8 0.00 0.00 0.00 56 1011.7
20260505022618 16 172 1.6 4.8 0.00 0.00 0.00 56 1011.5
20260505022549 16 176 3.2 4.8 0.00 0.00 0.00 56 1011.5
20260505022425 16 179 1.6 4.8 0.00 0.00 0.00 56 1011.6
20260505022320 16 221 3.2 4.8 0.00 0.00 0.00 55 1011.4
20260505022216 16 188 1.6 3.2 0.00 0.00 0.00 55 1011.5
20260505022127 16 187 3.2 3.2 0.00 0.00 0.00 55 1011.4
20260505022023 16 209 3.2 4.8 0.00 0.00 0.00 56 1011.6
20260505021919 16 172 3.2 4.8 0.00 0.00 0.00 55 1011.6
20260505021830 16 206 3.2 4.8 0.00 0.00 0.00 55 1011.5
20260505021726 16 198 3.2 4.8 0.00 0.00 0.00 55 1011.6
20260505021642 16 0.0 3.2 0.00 0.00 0.00 55 1011.4
20260505021517 16 115 1.6 4.8 0.00 0.00 0.00 55 1011.6
20260505021429 16 208 1.6 3.2 0.00 0.00 0.00 54 1011.7
20260505021324 16 196 1.6 4.8 0.00 0.00 0.00 54 1011.4
20260505021220 16 204 3.2 4.8 0.00 0.00 0.00 54 1011.5
20260505021135 16 184 3.2 4.8 0.00 0.00 0.00 54 1011.7
20260505021027 16 199 6.4 11.3 0.00 0.00 0.00 54 1011.5
20260505020923 16 209 8.0 9.7 0.00 0.00 0.00 54 1011.7
20260505020818 16 207 1.6 3.2 0.00 0.00 0.00 55 1011.6
20260505020730 16 148 3.2 8.0 0.00 0.00 0.00 54 1011.7
20260505020646 16 211 1.6 4.8 0.00 0.00 0.00 54 1011.6
20260505020522 16 57 3.2 6.4 0.00 0.00 0.00 54 1011.7
20260505020417 16 156 0.0 3.2 0.00 0.00 0.00 54 1011.7
20260505020329 16 128 1.6 3.2 0.00 0.00 0.00 54 1011.7
20260505020244 16 198 3.2 4.8 0.00 0.00 0.00 54 1011.6
20260505020120 16 182 3.2 3.2 0.00 0.00 0.00 54 1011.7
20260505020015 16 208 3.2 6.4 0.00 0.00 0.00 53 1011.7
20260505015927 16 197 3.2 8.0 0.00 0.00 0.00 53 1011.6
20260505015823 16 142 1.6 3.2 0.00 0.00 0.00 53 1011.5
20260505015718 16 163 1.6 3.2 0.00 0.00 0.00 53 1011.6
20260505015630 16 169 3.2 6.4 0.00 0.00 0.00 53 1011.5
20260505015526 16 208 3.2 6.4 0.00 0.00 0.00 53 1011.4
20260505015421 16 195 3.2 4.8 0.00 0.00 0.00 54 1011.4
20260505015317 16 124 1.6 3.2 0.00 0.00 0.00 53 1011.4
20260505015229 16 155 0.0 3.2 0.00 0.00 0.00 53 1011.5
20260505015124 16 150 1.6 3.2 0.00 0.00 0.00 53 1011.4
20260505015020 16 143 3.2 6.4 0.00 0.00 0.00 52 1011.5
20260505014915 16 190 3.2 6.4 0.00 0.00 0.00 53 1011.5
20260505014827 16 161 1.6 4.8 0.00 0.00 0.00 53 1011.5
20260505014723 16 83 3.2 4.8 0.00 0.00 0.00 53 1011.5
20260505014618 16 166 1.6 3.2 0.00 0.00 0.00 54 1011.4
20260505014530 16 149 1.6 3.2 0.00 0.00 0.00 53 1011.3
20260505014425 16 119 0.0 3.2 0.00 0.00 0.00 53 1011.5
20260505014321 16 56 1.6 3.2 0.00 0.00 0.00 53 1011.4
20260505014237 16 123 3.2 4.8 0.00 0.00 0.00 54 1011.4
20260505014128 15 183 4.8 8.0 0.00 0.00 0.00 52 1011.4
20260505014024 15 184 1.6 4.8 0.00 0.00 0.00 56 1011.5
20260505013919 15 181 1.6 3.2 0.00 0.00 0.00 57 1011.3
20260505013815 15 186 1.6 3.2 0.00 0.00 0.00 55 1011.3
20260505013727 15 156 3.2 3.2 0.00 0.00 0.00 55 1011.5
20260505013622 15 124 1.6 6.4 0.00 0.00 0.00 55 1011.3
20260505013518 15 208 1.6 3.2 0.00 0.00 0.00 54 1011.4
20260505013430 15 0.0 3.2 0.00 0.00 0.00 54 1011.3
20260505013325 15 80 1.6 3.2 0.00 0.00 0.00 55 1011.2
20260505013221 15 0.0 1.6 0.00 0.00 0.00 55 1011.5
20260505013116 15 0.0 3.2 0.00 0.00 0.00 55 1011.4
20260505013028 15 128 1.6 3.2 0.00 0.00 0.00 54 1011.5
20260505013004 15 132 1.6 4.8 0.00 0.00 0.00 55 1011.3
20260505012819 15 143 3.2 4.8 0.00 0.00 0.00 54 1011.3
20260505012715 15 121 3.2 3.2 0.00 0.00 0.00 55 1011.2
20260505012627 15 144 1.6 3.2 0.00 0.00 0.00 55 1011.2
20260505012522 15 118 1.6 3.2 0.00 0.00 0.00 55 1011.2
20260505012418 15 0.0 1.6 0.00 0.00 0.00 54 1011.2
20260505012330 15 111 1.6 3.2 0.00 0.00 0.00 55 1011.2
20260505012225 15 126 1.6 3.2 0.00 0.00 0.00 55 1011.1
20260505012141 15 149 1.6 3.2 0.00 0.00 0.00 54 1011.2
20260505012017 15 135 1.6 3.2 0.00 0.00 0.00 54 1011.2
20260505011928 15 137 1.6 3.2 0.00 0.00 0.00 54 1011.1
20260505011824 15 144 1.6 3.2 0.00 0.00 0.00 54 1011.0
20260505011719 15 116 0.0 3.2 0.00 0.00 0.00 54 1011.0
20260505011631 15 92 1.6 3.2 0.00 0.00 0.00 54 1011.0
20260505011546 16 170 0.0 3.2 0.00 0.00 0.00 54 1011.0
20260505011442 16 122 1.6 3.2 0.00 0.00 0.00 54 1011.0
20260505011318 16 0.0 1.6 0.00 0.00 0.00 54 1011.0
20260505011229 16 122 0.0 3.2 0.00 0.00 0.00 54 1011.0
20260505011125 16 142 1.6 3.2 0.00 0.00 0.00 54 1010.8
20260505011021 16 108 0.0 3.2 0.00 0.00 0.00 54 1010.7
20260505010916 16 139 1.6 3.2 0.00 0.00 0.00 53 1010.9
20260505010828 16 117 0.0 1.6 0.00 0.00 0.00 53 1011.0
20260505010723 16 148 1.6 3.2 0.00 0.00 0.00 52 1010.8
20260505010619 16 196 0.0 1.6 0.00 0.00 0.00 52 1010.8
20260505010531 16 0.0 3.2 0.00 0.00 0.00 52 1010.9
20260505010427 16 147 0.0 3.2 0.00 0.00 0.00 52 1010.9
20260505010322 16 120 0.0 3.2 0.00 0.00 0.00 51 1010.8
20260505010218 16 157 0.0 1.6 0.00 0.00 0.00 51 1010.9
20260505010129 16 150 1.6 3.2 0.00 0.00 0.00 51 1010.8
20260505010025 16 0.0 3.2 0.00 0.00 0.00 52 1010.9
20260505005920 16 0.0 3.2 0.00 0.00 0.00 52 1011.0
20260505005816 16 139 1.6 3.2 0.00 0.00 0.00 52 1010.9
20260505005728 16 149 1.6 3.2 0.00 0.00 0.00 51 1010.8
20260505005624 16 114 1.6 3.2 0.00 0.00 0.00 50 1011.0
20260505005519 16 123 1.6 3.2 0.00 0.00 0.00 50 1010.8
20260505005451 16 152 0.0 3.2 0.00 0.00 0.00 50 1010.9
20260505005326 16 126 1.6 3.2 0.00 0.00 0.00 50 1010.8
20260505005222 17 98 1.6 3.2 0.00 0.00 0.00 50 1010.7
20260505005138 17 99 1.6 3.2 0.00 0.00 0.00 50 1010.7
20260505005029 17 142 1.6 3.2 0.00 0.00 0.00 49 1010.7
20260505004925 17 0.0 1.6 0.00 0.00 0.00 49 1010.7
20260505004840 17 199 0.0 3.2 0.00 0.00 0.00 49 1010.6
20260505004716 17 142 1.6 3.2 0.00 0.00 0.00 49 1010.8
20260505004627 17 124 1.6 3.2 0.00 0.00 0.00 49 1010.6
20260505004543 17 0.0 1.6 0.00 0.00 0.00 49 1010.6
20260505004439 17 0.0 3.2 0.00 0.00 0.00 49 1010.7
20260505004331 17 144 1.6 3.2 0.00 0.00 0.00 48 1010.6
20260505004226 17 0.0 3.2 0.00 0.00 0.00 48 1010.6
20260505004122 17 142 1.6 3.2 0.00 0.00 0.00 48 1010.5
20260505004017 17 84 0.0 1.6 0.00 0.00 0.00 48 1010.7
20260505003929 17 157 0.0 3.2 0.00 0.00 0.00 48 1010.4
20260505003825 17 137 0.0 1.6 0.00 0.00 0.00 47 1010.6
20260505003720 17 0.0 0.0 0.00 0.00 0.00 47 1010.6
20260505003616 17 0.0 3.2 0.00 0.00 0.00 47 1010.5
20260505003528 17 131 1.6 3.2 0.00 0.00 0.00 47 1010.5
20260505003423 17 176 0.0 1.6 0.00 0.00 0.00 47 1010.6
20260505003359 18 124 0.0 3.2 0.00 0.00 0.00 47 1010.5
20260505003230 18 153 1.6 1.6 0.00 0.00 0.00 46 1010.5
20260505003126 18 81 1.6 1.6 0.00 0.00 0.00 46 1010.3
20260505003021 18 0.0 1.6 0.00 0.00 0.00 46 1010.5
20260505002917 18 102 1.6 3.2 0.00 0.00 0.00 46 1010.4
20260505002849 18 111 1.6 3.2 0.00 0.00 0.00 46 1010.5
20260505002724 18 118 1.6 3.2 0.00 0.00 0.00 45 1010.6
20260505002640 18 134 1.6 3.2 0.00 0.00 0.00 45 1010.4
20260505002516 18 139 1.6 3.2 0.00 0.00 0.00 44 1010.6
20260505002427 18 118 0.0 3.2 0.00 0.00 0.00 44 1010.4
20260505002323 18 0.0 0.0 0.00 0.00 0.00 43 1010.4
20260505002238 18 0.0 1.6 0.00 0.00 0.00 42 1010.3
20260505002130 18 0.0 1.6 0.00 0.00 0.00 42 1010.4
20260505002026 18 193 0.0 3.2 0.00 0.00 0.00 42 1010.5
20260505001921 19 0.0 1.6 0.00 0.00 0.00 42 1010.4
20260505001817 19 184 0.0 3.2 0.00 0.00 0.00 42 1010.3
20260505001728 19 0.0 1.6 0.00 0.00 0.00 41 1010.5
20260505001624 19 216 1.6 4.8 0.00 0.00 0.00 41 1010.3
20260505001520 19 206 1.6 3.2 0.00 0.00 0.00 41 1010.2
20260505001415 19 191 1.6 3.2 0.00 0.00 0.00 41 1010.2
20260505001327 19 224 1.6 3.2 0.00 0.00 0.00 41 1010.3
20260505001222 19 210 1.6 3.2 0.00 0.00 0.00 41 1010.3
20260505001118 19 219 1.6 3.2 0.00 0.00 0.00 41 1010.4
20260505001030 19 222 0.0 3.2 0.00 0.00 0.00 40 1010.3
20260505000925 19 206 1.6 3.2 0.00 0.00 0.00 41 1010.3
20260505000821 19 235 1.6 3.2 0.00 0.00 0.00 40 1010.2
20260505000716 19 201 1.6 3.2 0.00 0.00 0.00 40 1010.2
20260505000628 19 248 0.0 3.2 0.00 0.00 0.00 40 1010.3
20260505000524 20 190 1.6 3.2 0.00 0.00 0.00 40 1010.3
20260505000420 20 220 3.2 6.4 0.00 0.00 0.00 40 1010.3
20260505000331 20 195 3.2 4.8 0.00 0.00 0.00 40 1010.2
20260505000226 20 192 1.6 4.8 0.00 0.00 0.00 40 1010.2
20260505000142 20 199 1.6 4.8 0.00 0.00 0.00 39 1010.1
20260505000038 20 190 1.6 4.8 0.00 0.00 0.00 39 1010.1
20260504235929 20 199 4.8 8.0 0.00 0.00 0.00 39 1010.0
20260504235825 20 213 3.2 6.4 0.00 0.00 0.00 39 1009.8
20260504235721 20 209 3.2 4.8 0.00 0.00 0.00 38 1010.0
20260504235616 20 208 3.2 4.8 0.00 0.00 0.00 39 1009.9
20260504235548 20 190 3.2 4.8 0.00 0.00 0.00 39 1009.9
20260504235424 20 209 4.8 6.4 0.00 0.00 0.00 39 1009.9
20260504235339 20 216 3.2 6.4 0.00 0.00 0.00 38 1009.9
20260504235231 20 198 4.8 6.4 0.00 0.00 0.00 38 1009.9
20260504235126 20 202 4.8 6.4 0.00 0.00 0.00 39 1010.3
20260504235022 20 206 1.6 3.2 0.00 0.00 0.00 38 1009.8
20260504234917 20 206 3.2 4.8 0.00 0.00 0.00 37 1009.9
20260504234830 20 213 4.8 6.4 0.00 0.00 0.00 38 1009.9
20260504234725 20 204 4.8 6.4 0.00 0.00 0.00 38 1010.0
20260504234621 20 202 6.4 9.7 0.00 0.00 0.00 37 1009.8
20260504234536 20 215 3.2 6.4 0.00 0.00 0.00 37 1009.8
20260504234428 20 236 1.6 6.4 0.00 0.00 0.00 37 1009.8
20260504234324 20 218 4.8 9.7 0.00 0.00 0.00 37 1009.9
20260504234239 20 248 6.4 9.7 0.00 0.00 0.00 37 1009.6
20260504234131 20 200 3.2 6.4 0.00 0.00 0.00 38 1009.8
20260504234026 20 214 4.8 6.4 0.00 0.00 0.00 37 1009.7
20260504233942 20 221 3.2 9.7 0.00 0.00 0.00 37 1009.9
20260504233817 20 197 4.8 8.0 0.00 0.00 0.00 37 1009.7
20260504233729 20 265 6.4 11.3 0.00 0.00 0.00 37 1009.7
20260504233645 20 265 4.8 6.4 0.00 0.00 0.00 37 1009.6
20260504233520 20 210 6.4 9.7 0.00 0.00 0.00 37 1009.8
20260504233436 20 212 6.4 9.7 0.00 0.00 0.00 37 1009.8
20260504233328 20 208 4.8 6.4 0.00 0.00 0.00 38 1009.8
20260504233243 20 208 4.8 6.4 0.00 0.00 0.00 38 1009.8
20260504233119 20 214 1.6 4.8 0.00 0.00 0.00 37 1009.6
20260504233031 20 208 4.8 6.4 0.00 0.00 0.00 37 1009.7
20260504232926 20 208 6.4 9.7 0.00 0.00 0.00 37 1009.5
20260504232821 21 234 4.8 8.0 0.00 0.00 0.00 37 1009.7
20260504232716 21 220 4.8 8.0 0.00 0.00 0.00 37 1009.7
20260504232628 21 211 6.4 8.0 0.00 0.00 0.00 37 1009.7
20260504232523 21 213 4.8 6.4 0.00 0.00 0.00 37 1009.5
20260504232419 21 228 4.8 9.7 0.00 0.00 0.00 37 1009.7
20260504232330 21 199 4.8 9.7 0.00 0.00 0.00 37 1009.6
20260504232226 21 248 4.8 8.0 0.00 0.00 0.00 37 1009.8
20260504232141 21 223 4.8 12.9 0.00 0.00 0.00 37 1009.6
20260504232017 21 206 6.4 8.0 0.00 0.00 0.00 37 1009.6
20260504231929 21 257 3.2 6.4 0.00 0.00 0.00 37 1009.5
20260504231845 21 196 6.4 9.7 0.00 0.00 0.00 37 1009.6
20260504231720 21 218 1.6 3.2 0.00 0.00 0.00 37 1009.5
20260504231616 21 216 6.4 9.7 0.00 0.00 0.00 36 1009.7
20260504231527 21 205 4.8 8.0 0.00 0.00 0.00 36 1009.7
20260504231423 21 205 6.4 9.7 0.00 0.00 0.00 37 1009.5
20260504231319 21 263 4.8 8.0 0.00 0.00 0.00 36 1009.8
20260504231230 21 210 4.8 11.3 0.00 0.00 0.00 36 1009.6
20260504231146 21 249 9.7 16.1 0.00 0.00 0.00 36 1009.7
20260504231022 21 242 3.2 9.7 0.00 0.00 0.00 36 1009.4
20260504230917 21 223 8.0 9.7 0.00 0.00 0.00 36 1009.5
20260504230829 21 200 9.7 14.5 0.00 0.00 0.00 36 1009.3
20260504230725 21 188 6.4 11.3 0.00 0.00 0.00 36 1009.2
20260504230620 21 197 8.0 9.7 0.00 0.00 0.00 35 1009.3
20260504230516 21 205 9.7 14.5 0.00 0.00 0.00 36 1009.4
20260504230427 21 200 3.2 6.4 0.00 0.00 0.00 37 1009.3
20260504230403 21 226 4.8 9.7 0.00 0.00 0.00 36 1009.5
20260504230219 21 224 4.8 9.7 0.00 0.00 0.00 36 1009.4
20260504230131 21 203 6.4 9.7 0.00 0.00 0.00 36 1009.4
20260504230026 21 206 6.4 9.7 0.00 0.00 0.00 36 1009.2
20260504225922 21 226 4.8 6.4 0.00 0.00 0.00 36 1009.5
20260504225817 21 198 4.8 6.4 0.00 0.00 0.00 36 1009.5
20260504225729 21 236 3.2 6.4 0.00 0.00 0.00 35 1009.4
20260504225625 21 203 4.8 9.7 0.00 0.00 0.00 36 1009.4
20260504225540 21 194 4.8 6.4 0.00 0.00 0.00 36 1009.2
20260504225416 21 202 4.8 8.0 0.00 0.00 0.00 37 1009.4
20260504225328 21 200 4.8 6.4 0.00 0.00 0.00 36 1009.4
20260504225243 21 209 3.2 6.4 0.00 0.00 0.00 35 1009.4
20260504225119 21 219 4.8 6.4 0.00 0.00 0.00 36 1009.4
20260504225030 21 217 6.4 12.9 0.00 0.00 0.00 36 1009.4
20260504224926 21 202 4.8 6.4 0.00 0.00 0.00 36 1009.5
20260504224822 21 196 4.8 8.0 0.00 0.00 0.00 36 1009.2
20260504224717 21 230 4.8 6.4 0.00 0.00 0.00 35 1009.4
20260504224629 21 239 4.8 9.7 0.00 0.00 0.00 35 1009.5
20260504224524 21 241 6.4 12.9 0.00 0.00 0.00 35 1009.5
20260504224420 21 208 9.7 17.7 0.00 0.00 0.00 35 1009.6
20260504224316 21 200 6.4 11.3 0.00 0.00 0.00 35 1009.5
20260504224227 21 225 6.4 12.9 0.00 0.00 0.00 35 1009.4
20260504224123 21 202 8.0 11.3 0.00 0.00 0.00 36 1009.6
20260504224039 21 227 4.8 6.4 0.00 0.00 0.00 37 1009.3
20260504223930 21 196 1.6 4.8 0.00 0.00 0.00 36 1009.5
20260504223846 21 222 4.8 9.7 0.00 0.00 0.00 35 1009.5
20260504223722 21 240 4.8 9.7 0.00 0.00 0.00 36 1009.3
20260504223637 21 220 0.0 3.2 0.00 0.00 0.00 35 1009.4
20260504223529 21 239 3.2 9.7 0.00 0.00 0.00 35 1009.5
20260504223424 21 205 6.4 11.3 0.00 0.00 0.00 35 1009.5
20260504223320 21 206 6.4 9.7 0.00 0.00 0.00 35 1009.4
20260504223215 21 216 3.2 9.7 0.00 0.00 0.00 35 1009.5
20260504223127 21 194 8.0 9.7 0.00 0.00 0.00 35 1009.5
20260504223023 21 278 6.4 11.3 0.00 0.00 0.00 35 1009.5
20260504222918 21 224 6.4 8.0 0.00 0.00 0.00 35 1009.4
20260504222830 21 186 3.2 6.4 0.00 0.00 0.00 36 1009.5
20260504222726 21 204 6.4 9.7 0.00 0.00 0.00 35 1009.7
20260504222621 21 196 9.7 14.5 0.00 0.00 0.00 35 1009.3
20260504222517 21 229 4.8 9.7 0.00 0.00 0.00 35 1009.5
20260504222428 21 210 4.8 9.7 0.00 0.00 0.00 35 1009.4
20260504222324 21 208 3.2 6.4 0.00 0.00 0.00 34 1009.4
20260504222240 21 235 3.2 4.8 0.00 0.00 0.00 34 1009.5
20260504222115 21 224 4.8 8.0 0.00 0.00 0.00 35 1009.4
20260504222027 22 204 4.8 6.4 0.00 0.00 0.00 36 1009.5
20260504221923 21 200 4.8 11.3 0.00 0.00 0.00 35 1009.4
20260504221818 21 240 4.8 8.0 0.00 0.00 0.00 34 1009.5
20260504221730 21 207 3.2 4.8 0.00 0.00 0.00 35 1009.5
20260504221626 21 203 4.8 8.0 0.00 0.00 0.00 35 1009.5
20260504221521 21 179 4.8 8.0 0.00 0.00 0.00 34 1009.6
20260504221437 21 205 4.8 9.7 0.00 0.00 0.00 35 1009.5
20260504221329 21 247 3.2 4.8 0.00 0.00 0.00 34 1009.5
20260504221224 21 195 3.2 14.5 0.00 0.00 0.00 34 1009.6
20260504221120 21 191 8.0 14.5 0.00 0.00 0.00 34 1009.5
20260504221016 22 212 4.8 8.0 0.00 0.00 0.00 35 1009.4
20260504220927 22 207 6.4 11.3 0.00 0.00 0.00 34 1009.5
20260504220823 22 222 6.4 11.3 0.00 0.00 0.00 34 1009.8
20260504220718 22 236 6.4 9.7 0.00 0.00 0.00 34 1009.6
20260504220630 22 196 8.0 14.5 0.00 0.00 0.00 35 1009.6
20260504220526 22 213 4.8 6.4 0.00 0.00 0.00 35 1009.6
20260504220421 22 230 3.2 6.4 0.00 0.00 0.00 34 1009.7
20260504220317 22 221 3.2 9.7 0.00 0.00 0.00 34 1009.6
20260504220228 22 208 4.8 6.4 0.00 0.00 0.00 35 1009.8
20260504220124 22 267 3.2 4.8 0.00 0.00 0.00 34 1009.7
20260504220019 22 218 3.2 4.8 0.00 0.00 0.00 35 1009.6
20260504215915 22 198 3.2 6.4 0.00 0.00 0.00 35 1009.7
20260504215827 22 193 4.8 6.4 0.00 0.00 0.00 34 1009.6
20260504215723 22 253 3.2 8.0 0.00 0.00 0.00 33 1009.7
20260504215638 22 206 6.4 9.7 0.00 0.00 0.00 34 1009.8
20260504215530 22 218 4.8 8.0 0.00 0.00 0.00 34 1009.7
20260504215425 22 212 4.8 12.9 0.00 0.00 0.00 34 1009.7
20260504215341 22 210 8.0 11.3 0.00 0.00 0.00 35 1009.7
20260504215217 22 210 4.8 11.3 0.00 0.00 0.00 35 1009.6
20260504215129 22 218 4.8 6.4 0.00 0.00 0.00 34 1009.7
20260504215024 22 217 8.0 14.5 0.00 0.00 0.00 34 1009.8
20260504214920 22 220 6.4 9.7 0.00 0.00 0.00 34 1009.7
20260504214815 22 211 8.0 11.3 0.00 0.00 0.00 34 1009.8
20260504214727 22 222 3.2 9.7 0.00 0.00 0.00 34 1009.9
20260504214623 22 226 6.4 14.5 0.00 0.00 0.00 34 1009.8
20260504214518 22 203 4.8 11.3 0.00 0.00 0.00 34 1009.7
20260504214430 22 197 9.7 14.5 0.00 0.00 0.00 34 1009.8
20260504214345 22 239 6.4 16.1 0.00 0.00 0.00 34 1009.7
20260504214221 22 37 1.6 4.8 0.00 0.00 0.00 34 1009.8
20260504214117 22 220 4.8 6.4 0.00 0.00 0.00 34 1009.6
20260504214028 22 228 3.2 4.8 0.00 0.00 0.00 34 1009.8
20260504213924 22 195 4.8 6.4 0.00 0.00 0.00 34 1009.9
20260504213820 22 237 4.8 9.7 0.00 0.00 0.00 35 1009.9
20260504213715 22 208 6.4 8.0 0.00 0.00 0.00 35 1010.1
20260504213647 22 218 4.8 6.4 0.00 0.00 0.00 34 1009.9
20260504213522 22 284 3.2 6.4 0.00 0.00 0.00 33 1009.7
20260504213418 22 214 6.4 9.7 0.00 0.00 0.00 34 1009.8
20260504213330 22 201 4.8 9.7 0.00 0.00 0.00 33 1009.9
20260504213225 22 288 4.8 9.7 0.00 0.00 0.00 33 1009.9
20260504213121 22 269 4.8 9.7 0.00 0.00 0.00 33 1010.0
20260504213016 22 224 4.8 11.3 0.00 0.00 0.00 34 1009.9
20260504212928 22 203 9.7 14.5 0.00 0.00 0.00 34 1010.0
20260504212824 22 183 8.0 14.5 0.00 0.00 0.00 34 1010.0
20260504212739 22 210 6.4 12.9 0.00 0.00 0.00 34 1009.8
20260504212631 22 206 4.8 9.7 0.00 0.00 0.00 35 1009.7
20260504212546 22 213 4.8 6.4 0.00 0.00 0.00 33 1009.9
20260504212421 22 208 6.4 11.3 0.00 0.00 0.00 34 1010.0
20260504212317 22 211 6.4 16.1 0.00 0.00 0.00 34 1009.9
20260504212229 22 204 11.3 22.5 0.00 0.00 0.00 35 1009.8
20260504212125 22 194 9.7 14.5 0.00 0.00 0.00 34 1009.9
20260504212020 22 197 6.4 9.7 0.00 0.00 0.00 34 1010.0
20260504211916 22 192 9.7 14.5 0.00 0.00 0.00 34 1009.9
20260504211827 22 199 8.0 9.7 0.00 0.00 0.00 34 1010.0
20260504211723 22 226 4.8 9.7 0.00 0.00 0.00 34 1010.2
20260504211618 22 200 6.4 8.0 0.00 0.00 0.00 34 1009.8
20260504211530 22 229 6.4 9.7 0.00 0.00 0.00 34 1010.1
20260504211425 22 220 4.8 8.0 0.00 0.00 0.00 33 1010.0
20260504211321 22 217 4.8 9.7 0.00 0.00 0.00 34 1009.9
20260504211237 22 220 4.8 11.3 0.00 0.00 0.00 34 1010.0
20260504211128 22 207 4.8 14.5 0.00 0.00 0.00 34 1010.0
20260504211104 22 192 8.0 12.9 0.00 0.00 0.00 35 1010.1
20260504210919 22 305 3.2 8.0 0.00 0.00 0.00 34 1010.0
20260504210815 22 240 4.8 6.4 0.00 0.00 0.00 34 1009.9
20260504210807 22 225 4.8 9.7 0.00 0.00 0.00 34 1009.8
20260504210622 22 224 4.8 8.0 0.00 0.00 0.00 35 1010.1
20260504210518 22 200 8.0 9.7 0.00 0.00 0.00 33 1010.2
20260504210510 22 198 11.3 16.1 0.00 0.00 0.00 34 1010.0
20260504210345 22 212 8.0 14.5 0.00 0.00 0.00 34 1009.9
20260504210221 22 203 8.0 11.3 0.00 0.00 0.00 34 1009.9
20260504210116 22 213 4.8 8.0 0.00 0.00 0.00 35 1010.0
20260504210028 22 211 9.7 14.5 0.00 0.00 0.00 34 1009.8
20260504205923 22 219 4.8 8.0 0.00 0.00 0.00 36 1009.9
20260504205819 22 197 6.4 14.5 0.00 0.00 0.00 35 1009.9
20260504205750 22 207 12.9 19.3 0.00 0.00 0.00 34 1009.9
20260504205626 22 201 9.7 19.3 0.00 0.00 0.00 35 1009.8
20260504205521 22 198 6.4 9.7 0.00 0.00 0.00 35 1009.9
20260504205437 22 224 4.8 8.0 0.00 0.00 0.00 34 1009.8
20260504205328 22 241 3.2 6.4 0.00 0.00 0.00 35 1009.7
20260504205224 22 199 3.2 6.4 0.00 0.00 0.00 36 1010.0
20260504205119 22 207 4.8 9.7 0.00 0.00 0.00 34 1009.9
20260504205051 22 246 8.0 9.7 0.00 0.00 0.00 34 1010.0
20260504204926 22 229 6.4 9.7 0.00 0.00 0.00 34 1010.1
20260504204822 22 199 3.2 6.4 0.00 0.00 0.00 34 1009.9
20260504204717 22 222 3.2 4.8 0.00 0.00 0.00 33 1009.8
20260504204629 22 213 3.2 6.4 0.00 0.00 0.00 34 1010.0
20260504204524 22 239 4.8 8.0 0.00 0.00 0.00 33 1009.8
20260504204440 22 223 3.2 9.7 0.00 0.00 0.00 33 1009.7
20260504204315 22 208 8.0 14.5 0.00 0.00 0.00 34 1009.9
20260504204227 22 216 8.0 9.7 0.00 0.00 0.00 34 1010.0
20260504204122 22 207 4.8 8.0 0.00 0.00 0.00 34 1009.9
20260504204018 22 201 6.4 9.7 0.00 0.00 0.00 33 1009.9
20260504203929 22 214 6.4 8.0 0.00 0.00 0.00 34 1009.8
20260504203824 22 198 8.0 11.3 0.00 0.00 0.00 33 1009.8
20260504203720 22 203 4.8 6.4 0.00 0.00 0.00 34 1009.8
20260504203615 22 195 8.0 11.3 0.00 0.00 0.00 32 1010.0
20260504203526 22 203 8.0 9.7 0.00 0.00 0.00 33 1009.8
20260504203421 22 200 9.7 12.9 0.00 0.00 0.00 33 1009.8
20260504203337 22 205 9.7 14.5 0.00 0.00 0.00 35 1009.8
20260504203228 22 205 8.0 12.9 0.00 0.00 0.00 35 1009.9
20260504203124 22 201 9.7 20.9 0.00 0.00 0.00 33 1009.8
20260504203019 23 217 14.5 20.9 0.00 0.00 0.00 32 1009.9
20260504202930 23 212 6.4 14.5 0.00 0.00 0.00 33 1010.0
20260504202846 23 255 4.8 8.0 0.00 0.00 0.00 34 1009.9
20260504202722 22 210 4.8 6.4 0.00 0.00 0.00 35 1010.0
20260504202617 22 25 6.4 8.0 0.00 0.00 0.00 33 1010.0
20260504202529 22 219 3.2 8.0 0.00 0.00 0.00 33 1009.8
20260504202425 22 357 3.2 8.0 0.00 0.00 0.00 33 1010.0
20260504202320 22 220 4.8 8.0 0.00 0.00 0.00 32 1009.9
20260504202216 23 207 6.4 16.1 0.00 0.00 0.00 33 1010.1
20260504202127 23 231 3.2 6.4 0.00 0.00 0.00 33 1009.9
20260504202023 23 199 8.0 9.7 0.00 0.00 0.00 32 1009.9
20260504201918 23 209 4.8 8.0 0.00 0.00 0.00 33 1009.9
20260504201830 23 237 8.0 14.5 0.00 0.00 0.00 32 1010.1
20260504201725 23 204 6.4 12.9 0.00 0.00 0.00 34 1010.0
20260504201641 23 218 4.8 6.4 0.00 0.00 0.00 34 1009.8
20260504201516 23 196 6.4 11.3 0.00 0.00 0.00 32 1010.0
20260504201428 23 215 4.8 9.7 0.00 0.00 0.00 34 1010.2
20260504201323 23 271 3.2 8.0 0.00 0.00 0.00 33 1010.2
20260504201239 23 356 1.6 4.8 0.00 0.00 0.00 33 1010.0
20260504201130 23 252 3.2 4.8 0.00 0.00 0.00 33 1010.0
20260504201026 23 216 4.8 12.9 0.00 0.00 0.00 33 1010.0
20260504200941 23 195 3.2 9.7 0.00 0.00 0.00 34 1010.1
20260504200836 23 201 6.4 8.0 0.00 0.00 0.00 34 1010.2
20260504200748 23 212 8.0 11.3 0.00 0.00 0.00 35 1010.2
20260504200623 23 211 8.0 9.7 0.00 0.00 0.00 33 1010.1
20260504200519 23 207 8.0 11.3 0.00 0.00 0.00 33 1010.0
20260504200431 23 201 9.7 16.1 0.00 0.00 0.00 33 1010.0
20260504200325 23 293 6.4 9.7 0.00 0.00 0.00 32 1009.9
20260504200221 23 293 3.2 8.0 0.00 0.00 0.00 33 1010.1
20260504200136 23 212 4.8 9.7 0.00 0.00 0.00 34 1010.1
20260504200028 23 216 8.0 12.9 0.00 0.00 0.00 32 1010.0
20260504195924 23 227 3.2 8.0 0.00 0.00 0.00 32 1009.9
20260504195819 23 247 6.4 8.0 0.00 0.00 0.00 34 1010.0
20260504195750 23 199 8.0 12.9 0.00 0.00 0.00 34 1010.2
20260504195626 23 203 9.7 12.9 0.00 0.00 0.00 34 1010.1
20260504195521 23 203 8.0 11.3 0.00 0.00 0.00 34 1010.2
20260504195417 23 201 6.4 11.3 0.00 0.00 0.00 35 1010.2
20260504195329 23 183 4.8 8.0 0.00 0.00 0.00 34 1010.1
20260504195244 23 219 4.8 9.7 0.00 0.00 0.00 35 1010.2
20260504195120 23 210 8.0 11.3 0.00 0.00 0.00 35 1010.2
20260504195016 23 216 8.0 14.5 0.00 0.00 0.00 34 1010.1
20260504194927 23 204 8.0 14.5 0.00 0.00 0.00 35 1010.3
20260504194823 23 251 4.8 6.4 0.00 0.00 0.00 34 1010.1
20260504194718 23 206 8.0 9.7 0.00 0.00 0.00 35 1010.1
20260504194630 23 198 8.0 12.9 0.00 0.00 0.00 33 1010.2
20260504194526 22 204 3.2 6.4 0.00 0.00 0.00 34 1010.2
20260504194421 22 220 6.4 9.7 0.00 0.00 0.00 35 1010.1
20260504194317 22 206 6.4 11.3 0.00 0.00 0.00 34 1010.1
20260504194228 22 276 4.8 11.3 0.00 0.00 0.00 34 1010.1
20260504194124 22 202 8.0 14.5 0.00 0.00 0.00 36 1010.0
20260504194019 23 197 9.7 16.1 0.00 0.00 0.00 34 1010.1
20260504193915 23 216 6.4 11.3 0.00 0.00 0.00 34 1010.2
20260504193827 23 210 8.0 12.9 0.00 0.00 0.00 34 1010.1
20260504193722 23 210 8.0 14.5 0.00 0.00 0.00 34 1010.1
20260504193618 23 212 8.0 11.3 0.00 0.00 0.00 35 1010.2
20260504193530 23 208 8.0 14.5 0.00 0.00 0.00 36 1010.1
20260504193445 23 276 3.2 6.4 0.00 0.00 0.00 34 1010.2
20260504193321 23 197 4.8 6.4 0.00 0.00 0.00 33 1010.2
20260504193216 23 202 4.8 8.0 0.00 0.00 0.00 33 1010.2
20260504193128 22 192 3.2 4.8 0.00 0.00 0.00 34 1010.2
20260504193024 22 256 4.8 6.4 0.00 0.00 0.00 36 1010.3
20260504192919 22 250 3.2 6.4 0.00 0.00 0.00 34 1010.3
20260504192831 22 291 4.8 9.7 0.00 0.00 0.00 34 1010.2
20260504192746 22 212 4.8 9.7 0.00 0.00 0.00 35 1010.2
20260504192622 22 199 8.0 12.9 0.00 0.00 0.00 33 1010.2
20260504192517 23 189 11.3 14.5 0.00 0.00 0.00 32 1010.2
20260504192429 23 220 8.0 12.9 0.00 0.00 0.00 34 1010.5
20260504192325 23 197 4.8 8.0 0.00 0.00 0.00 35 1010.2
20260504192240 23 247 4.8 9.7 0.00 0.00 0.00 35 1010.5
20260504192116 22 222 6.4 12.9 0.00 0.00 0.00 35 1010.4
20260504192048 22 210 4.8 6.4 0.00 0.00 0.00 36 1010.5
20260504191943 22 236 4.8 9.7 0.00 0.00 0.00 34 1010.3
20260504191819 22 254 6.4 8.0 0.00 0.00 0.00 35 1010.2
20260504191731 22 195 8.0 9.7 0.00 0.00 0.00 34 1010.4
20260504191646 22 248 4.8 11.3 0.00 0.00 0.00 34 1010.3
20260504191522 22 200 9.7 14.5 0.00 0.00 0.00 34 1010.2
20260504191417 22 211 11.3 19.3 0.00 0.00 0.00 35 1010.4
20260504191349 23 197 8.0 14.5 0.00 0.00 0.00 34 1010.6
20260504191225 23 216 8.0 20.9 0.00 0.00 0.00 33 1010.6
20260504191120 23 232 4.8 6.4 0.00 0.00 0.00 36 1010.7
20260504191016 23 193 3.2 6.4 0.00 0.00 0.00 34 1010.6
20260504190928 23 286 3.2 11.3 0.00 0.00 0.00 34 1010.4
20260504190823 23 312 4.8 12.9 0.00 0.00 0.00 33 1010.4
20260504190719 22 219 4.8 11.3 0.00 0.00 0.00 33 1010.5
20260504190630 22 273 4.8 14.5 0.00 0.00 0.00 33 1010.6
20260504190526 22 232 4.8 6.4 0.00 0.00 0.00 34 1010.4
20260504190421 22 229 4.8 12.9 0.00 0.00 0.00 34 1010.6
20260504190357 22 195 9.7 14.5 0.00 0.00 0.00 34 1010.7
20260504190229 22 204 9.7 12.9 0.00 0.00 0.00 34 1010.7
20260504190144 22 197 11.3 20.9 0.00 0.00 0.00 34 1010.6
20260504190020 22 197 8.0 14.5 0.00 0.00 0.00 35 1010.5
20260504185915 22 189 8.0 9.7 0.00 0.00 0.00 36 1010.6
20260504185827 22 167 3.2 6.4 0.00 0.00 0.00 35 1010.5
20260504185723 22 222 6.4 9.7 0.00 0.00 0.00 35 1010.6
20260504185618 22 199 4.8 8.0 0.00 0.00 0.00 37 1010.7
20260504185530 22 207 6.4 8.0 0.00 0.00 0.00 37 1010.6
20260504185425 22 211 8.0 11.3 0.00 0.00 0.00 35 1010.9
20260504185321 22 211 4.8 8.0 0.00 0.00 0.00 37 1010.7
20260504185236 22 206 6.4 11.3 0.00 0.00 0.00 35 1010.8
20260504185128 22 203 8.0 11.3 0.00 0.00 0.00 35 1011.0
20260504185024 22 201 12.9 20.9 0.00 0.00 0.00 35 1011.0
20260504184919 22 226 9.7 14.5 0.00 0.00 0.00 35 1010.8
20260504184831 22 200 8.0 12.9 0.00 0.00 0.00 36 1010.9
20260504184726 22 210 4.8 11.3 0.00 0.00 0.00 34 1010.9
20260504184622 22 215 6.4 9.7 0.00 0.00 0.00 37 1010.9
20260504184517 22 213 8.0 11.3 0.00 0.00 0.00 35 1010.9
20260504184429 22 197 9.7 11.3 0.00 0.00 0.00 35 1011.0
20260504184325 22 194 12.9 20.9 0.00 0.00 0.00 34 1011.1
20260504184221 22 206 8.0 16.1 0.00 0.00 0.00 35 1011.0
20260504184116 22 207 6.4 11.3 0.00 0.00 0.00 36 1010.9
20260504184028 22 201 6.4 11.3 0.00 0.00 0.00 36 1010.9
20260504184003 22 218 6.4 12.9 0.00 0.00 0.00 35 1010.9
20260504183819 22 206 9.7 19.3 0.00 0.00 0.00 34 1011.2
20260504183730 22 211 9.7 17.7 0.00 0.00 0.00 34 1011.1
20260504183626 22 232 8.0 9.7 0.00 0.00 0.00 35 1011.0
20260504183522 22 204 6.4 8.0 0.00 0.00 0.00 34 1011.1
20260504183437 22 217 4.8 8.0 0.00 0.00 0.00 36 1011.1
20260504183329 22 210 6.4 9.7 0.00 0.00 0.00 35 1010.9
20260504183224 22 206 8.0 11.3 0.00 0.00 0.00 35 1011.2
20260504183120 22 212 8.0 11.3 0.00 0.00 0.00 34 1011.2
20260504183036 22 253 4.8 9.7 0.00 0.00 0.00 33 1011.2
20260504182928 22 228 8.0 19.3 0.00 0.00 0.00 33 1011.1
20260504182823 22 194 6.4 9.7 0.00 0.00 0.00 35 1011.0
20260504182719 22 172 4.8 6.4 0.00 0.00 0.00 35 1011.2
20260504182630 22 257 6.4 16.1 0.00 0.00 0.00 34 1011.1
20260504182526 22 216 6.4 11.3 0.00 0.00 0.00 36 1011.2
20260504182422 22 226 4.8 8.0 0.00 0.00 0.00 36 1011.2
20260504182317 22 208 4.8 14.5 0.00 0.00 0.00 35 1011.1
20260504182229 22 197 8.0 19.3 0.00 0.00 0.00 35 1011.2
20260504182124 22 241 4.8 8.0 0.00 0.00 0.00 37 1011.1
20260504182020 22 208 8.0 12.9 0.00 0.00 0.00 37 1011.1
20260504181936 22 202 11.3 19.3 0.00 0.00 0.00 35 1011.2
20260504181907 22 193 9.7 14.5 0.00 0.00 0.00 35 1011.0
20260504181723 22 191 9.7 14.5 0.00 0.00 0.00 35 1011.4
20260504181618 22 190 3.2 4.8 0.00 0.00 0.00 37 1011.3
20260504181530 22 196 6.4 16.1 0.00 0.00 0.00 36 1011.5
20260504181425 22 199 9.7 16.1 0.00 0.00 0.00 35 1011.3
20260504181321 21 277 4.8 9.7 0.00 0.00 0.00 35 1011.4
20260504181216 22 204 14.5 27.4 0.00 0.00 0.00 35 1011.3
20260504181148 21 280 9.7 19.3 0.00 0.00 0.00 35 1011.3
20260504181024 21 188 6.4 20.9 0.00 0.00 0.00 35 1011.3
20260504180919 21 194 11.3 22.5 0.00 0.00 0.00 34 1011.2
20260504180831 21 207 4.8 8.0 0.00 0.00 0.00 35 1011.4
20260504180727 22 198 9.7 14.5 0.00 0.00 0.00 34 1011.4
20260504180642 22 188 8.0 12.9 0.00 0.00 0.00 35 1011.5
20260504180518 21 213 4.8 9.7 0.00 0.00 0.00 36 1011.4
20260504180429 21 270 1.6 6.4 0.00 0.00 0.00 34 1011.4
20260504180325 21 269 3.2 9.7 0.00 0.00 0.00 35 1011.3
20260504180221 21 190 8.0 16.1 0.00 0.00 0.00 35 1011.5
20260504180116 21 199 9.7 12.9 0.00 0.00 0.00 35 1011.4
20260504180028 21 194 4.8 9.7 0.00 0.00 0.00 36 1011.7
20260504175923 21 196 8.0 12.9 0.00 0.00 0.00 37 1011.4
20260504175819 21 198 12.9 19.3 0.00 0.00 0.00 34 1011.4
20260504175730 21 196 9.7 16.1 0.00 0.00 0.00 36 1011.6
20260504175625 22 203 9.7 20.9 0.00 0.00 0.00 35 1011.4
20260504175521 22 201 8.0 14.5 0.00 0.00 0.00 34 1011.4
20260504175417 22 208 6.4 8.0 0.00 0.00 0.00 37 1011.6
20260504175328 21 202 3.2 9.7 0.00 0.00 0.00 36 1011.6
20260504175224 21 307 6.4 11.3 0.00 0.00 0.00 35 1011.6
20260504175119 21 324 4.8 12.9 0.00 0.00 0.00 36 1011.7
20260504175031 21 208 9.7 14.5 0.00 0.00 0.00 36 1011.8
20260504174926 21 189 9.7 16.1 0.00 0.00 0.00 35 1011.8
20260504174822 21 206 8.0 19.3 0.00 0.00 0.00 36 1011.8
20260504174720 21 214 9.7 14.5 0.00 0.00 0.00 34 1011.7
20260504174649 21 203 9.7 12.9 0.00 0.00 0.00 35 1011.7
20260504174525 22 214 8.0 12.9 0.00 0.00 0.00 34 1011.7
20260504174420 22 280 1.6 8.0 0.00 0.00 0.00 34 1011.8
20260504174316 22 194 4.8 9.7 0.00 0.00 0.00 37 1011.7
20260504174247 22 205 8.0 16.1 0.00 0.00 0.00 36 1011.8
20260504174123 22 250 6.4 14.5 0.00 0.00 0.00 35 1011.7
20260504174019 22 238 4.8 8.0 0.00 0.00 0.00 37 1011.9
20260504173930 22 285 8.0 9.7 0.00 0.00 0.00 38 1011.8
20260504173825 22 205 6.4 8.0 0.00 0.00 0.00 37 1011.8
20260504173721 21 194 6.4 6.4 0.00 0.00 0.00 38 1011.7
20260504173617 21 224 4.8 6.4 0.00 0.00 0.00 36 1011.7
20260504173528 21 220 6.4 12.9 0.00 0.00 0.00 36 1011.8
20260504173424 21 197 6.4 14.5 0.00 0.00 0.00 36 1011.8
20260504173320 21 201 4.8 8.0 0.00 0.00 0.00 37 1011.6
20260504173215 21 220 3.2 6.4 0.00 0.00 0.00 38 1011.8
20260504173147 21 221 3.2 9.7 0.00 0.00 0.00 37 1011.6
20260504173043 21 208 8.0 19.3 0.00 0.00 0.00 37 1011.8
20260504172918 21 205 9.7 17.7 0.00 0.00 0.00 38 1011.8
20260504172830 21 198 9.7 14.5 0.00 0.00 0.00 36 1011.7
20260504172725 21 218 8.0 12.9 0.00 0.00 0.00 36 1011.8
20260504172621 21 193 8.0 9.7 0.00 0.00 0.00 36 1011.9
20260504172537 21 229 9.7 22.5 0.00 0.00 0.00 35 1012.0
20260504172428 21 223 6.4 16.1 0.00 0.00 0.00 36 1012.0
20260504172324 21 215 9.7 17.7 0.00 0.00 0.00 36 1011.9
20260504172219 21 210 9.7 14.5 0.00 0.00 0.00 35 1011.7
20260504172151 21 203 8.0 11.3 0.00 0.00 0.00 34 1011.9
20260504172027 21 237 8.0 12.9 0.00 0.00 0.00 36 1012.0
20260504171922 21 198 8.0 12.9 0.00 0.00 0.00 37 1011.6
20260504171838 21 193 9.7 11.3 0.00 0.00 0.00 36 1011.8
20260504171809 21 229 1.6 9.7 0.00 0.00 0.00 36 1011.8
20260504171625 21 213 8.0 16.1 0.00 0.00 0.00 36 1011.9
20260504171521 21 205 6.4 14.5 0.00 0.00 0.00 38 1011.9
20260504171416 21 207 6.4 17.7 0.00 0.00 0.00 36 1012.0
20260504171328 21 10 4.8 9.7 0.00 0.00 0.00 36 1012.2
20260504171223 21 220 3.2 9.7 0.00 0.00 0.00 38 1012.1
20260504171119 21 24 4.8 9.7 0.00 0.00 0.00 37 1012.2
20260504171030 20 208 3.2 6.4 0.00 0.00 0.00 38 1012.0
20260504170926 20 245 8.0 11.3 0.00 0.00 0.00 37 1012.0
20260504170822 20 203 8.0 14.5 0.00 0.00 0.00 38 1012.1
20260504170717 20 196 9.7 12.9 0.00 0.00 0.00 37 1012.0
20260504170629 21 198 11.3 19.3 0.00 0.00 0.00 37 1012.0
20260504170525 20 196 6.4 16.1 0.00 0.00 0.00 37 1012.0
20260504170420 20 193 6.4 12.9 0.00 0.00 0.00 37 1012.0
20260504170336 20 200 6.4 9.7 0.00 0.00 0.00 39 1012.1
20260504170227 20 201 6.4 9.7 0.00 0.00 0.00 39 1012.2
20260504170143 20 192 11.3 20.9 0.00 0.00 0.00 36 1012.2
20260504160428 19 196 16.1 20.9 0.00 0.00 0.00 38 1013.1
20260504160323 19 205 11.3 17.7 0.00 0.00 0.00 38 1013.0
20260504160219 19 201 12.9 17.7 0.00 0.00 0.00 37 1013.1
20260504160131 19 196 12.9 17.7 0.00 0.00 0.00 37 1013.0